KG7AIQ Weather Reports


time (UTC)temp
F
wind
direction
speed
knots
gust
knots
rain 1hr
in
rain 24hr
in
rain mn
in
humidity
%
barometer
mb
20210723163041 78 186 0.9 3.5 0.00 0.00 0.00 33 1023.2
20210723162938 78 198 0.9 3.5 0.00 0.00 0.00 32 1023.2
20210723162830 78 212 0.9 3.5 0.00 0.00 0.00 32 1023.2
20210723162730 78 212 0.9 3.5 0.00 0.00 0.00 33 1023.2
20210723162630 78 55 0.9 3.5 0.00 0.00 0.00 33 1023.3
20210723162525 78 222 0.9 3.5 0.00 0.00 0.00 33 1023.3
20210723162427 78 161 0.9 3.5 0.00 0.00 0.00 33 1023.3
20210723162325 77 196 0.9 3.5 0.00 0.00 0.00 33 1023.3
20210723162225 77 150 1.7 3.5 0.00 0.00 0.00 33 1023.3
20210723162144 77 186 1.7 2.6 0.00 0.00 0.00 35 1023.3
20210723162123 77 203 1.7 2.6 0.00 0.00 0.00 35 1023.3
20210723162023 77 205 1.7 2.6 0.00 0.00 0.00 34 1023.3
20210723161920 77 240 1.7 2.6 0.00 0.00 0.00 35 1023.3
20210723161807 77 242 1.7 2.6 0.00 0.00 0.00 36 1023.3
20210723161709 77 242 1.7 2.6 0.00 0.00 0.00 34 1023.3
20210723161644 76 243 1.7 2.6 0.00 0.00 0.00 34 1023.3
20210723161603 76 242 1.7 2.6 0.00 0.00 0.00 34 1023.3
20210723161502 76 229 1.7 2.6 0.00 0.00 0.00 34 1023.3
20210723161403 76 197 1.7 2.6 0.00 0.00 0.00 35 1023.3
20210723161259 76 197 0.9 2.6 0.00 0.00 0.00 34 1023.3
20210723161144 76 197 0.9 2.6 0.00 0.00 0.00 35 1023.3
20210723161048 76 197 0.9 2.6 0.00 0.00 0.00 35 1023.3
20210723160949 76 197 0.9 2.6 0.00 0.00 0.00 36 1023.3
20210723160848 76 197 0.9 2.6 0.00 0.00 0.00 35 1023.3
20210723160747 76 190 0.9 2.6 0.00 0.00 0.00 35 1023.3
20210723160648 76 191 0.9 2.6 0.00 0.00 0.00 35 1023.3
20210723160639 76 182 0.9 2.6 0.00 0.00 0.00 35 1023.3
20210723160549 76 177 0.9 2.6 0.00 0.00 0.00 36 1023.3
20210723160443 76 177 0.9 2.6 0.00 0.00 0.00 36 1023.3
20210723160333 75 176 0.9 3.5 0.00 0.00 0.00 37 1023.3
20210723160233 75 164 1.7 3.5 0.00 0.00 0.00 37 1023.3
20210723160136 75 163 1.7 3.5 0.00 0.00 0.00 36 1023.3
20210723160128 75 164 1.7 3.5 0.00 0.00 0.00 36 1023.3
20210723160029 75 164 1.7 4.3 0.00 0.00 0.00 37 1023.3
20210723155927 75 137 1.7 4.3 0.00 0.00 0.00 37 1023.3
20210723155824 75 119 1.7 4.3 0.00 0.00 0.00 37 1023.3
20210723155722 75 119 1.7 4.3 0.00 0.00 0.00 38 1023.2
20210723155637 75 119 1.7 4.3 0.00 0.00 0.00 36 1023.2
20210723155621 75 119 1.7 4.3 0.00 0.00 0.00 37 1023.2
20210723155521 74 119 1.7 4.3 0.00 0.00 0.00 37 1023.2
20210723155422 74 161 1.7 4.3 0.00 0.00 0.00 37 1023.2
20210723155320 74 206 1.7 4.3 0.00 0.00 0.00 37 1023.2
20210723155220 74 206 0.9 4.3 0.00 0.00 0.00 37 1023.2
20210723155118 74 159 0.9 4.3 0.00 0.00 0.00 38 1023.2
20210723155013 74 185 0.9 3.5 0.00 0.00 0.00 37 1023.2
20210723154914 74 179 0.9 3.5 0.00 0.00 0.00 37 1023.2
20210723154808 74 179 0.9 3.5 0.00 0.00 0.00 37 1023.2
20210723154708 74 178 0.9 3.5 0.00 0.00 0.00 37 1023.2
20210723154634 74 178 0.9 3.5 0.00 0.00 0.00 37 1023.2
20210723154606 74 179 0.9 2.6 0.00 0.00 0.00 37 1023.2
20210723154505 74 181 0.9 2.6 0.00 0.00 0.00 36 1023.2
20210723154404 74 181 0.9 2.6 0.00 0.00 0.00 37 1023.2
20210723154256 74 178 0.9 2.6 0.00 0.00 0.00 37 1023.2
20210723154132 74 178 0.9 2.6 0.00 0.00 0.00 37 1023.2
20210723154046 74 178 0.9 2.6 0.00 0.00 0.00 37 1023.2
20210723153944 74 178 0.9 2.6 0.00 0.00 0.00 37 1023.2
20210723153838 74 178 0.9 2.6 0.00 0.00 0.00 37 1023.2
20210723153737 74 178 0.9 2.6 0.00 0.00 0.00 37 1023.2
20210723153618 74 178 0.9 2.6 0.00 0.00 0.00 37 1023.2
20210723153517 74 177 0.9 2.6 0.00 0.00 0.00 37 1023.2
20210723153414 74 177 0.9 2.6 0.00 0.00 0.00 37 1023.2
20210723153310 73 177 0.9 2.6 0.00 0.00 0.00 37 1023.2
20210723153210 73 177 0.9 2.6 0.00 0.00 0.00 38 1023.2
20210723153126 73 197 0.9 2.6 0.00 0.00 0.00 38 1023.2
20210723153111 73 197 0.9 2.6 0.00 0.00 0.00 37 1023.2
20210723153006 73 197 0.9 2.6 0.00 0.00 0.00 37 1023.2
20210723152906 73 197 0.9 2.6 0.00 0.00 0.00 37 1023.2
20210723152802 73 198 0.9 2.6 0.00 0.00 0.00 36 1023.2
20210723152700 73 201 0.9 2.6 0.00 0.00 0.00 36 1023.1
20210723152626 73 204 0.9 2.6 0.00 0.00 0.00 37 1023.1
20210723152548 73 205 0.9 2.6 0.00 0.00 0.00 37 1023.1
20210723152442 73 205 0.9 2.6 0.00 0.00 0.00 37 1023.1
20210723152338 73 205 0.9 2.6 0.00 0.00 0.00 37 1023.1
20210723152235 73 205 0.0 2.6 0.00 0.00 0.00 38 1023.1
20210723152124 73 205 0.0 2.6 0.00 0.00 0.00 37 1023.1
20210723152030 73 205 0.0 2.6 0.00 0.00 0.00 36 1023.1
20210723151931 73 207 0.0 2.6 0.00 0.00 0.00 39 1023.1
20210723151830 73 207 0.0 2.6 0.00 0.00 0.00 38 1023.1
20210723151730 73 208 0.0 2.6 0.00 0.00 0.00 38 1023.1
20210723151628 73 214 0.0 2.6 0.00 0.00 0.00 39 1023.1
20210723151558 73 214 0.0 2.6 0.00 0.00 0.00 39 1023.1
20210723151515 73 214 0.0 2.6 0.00 0.00 0.00 39 1023.1
20210723151407 73 214 0.0 2.6 0.00 0.00 0.00 39 1023.1
20210723151255 73 214 0.0 2.6 0.00 0.00 0.00 39 1023.1
20210723151135 73 214 0.0 2.6 0.00 0.00 0.00 39 1023.0
20210723151025 73 214 0.0 2.6 0.00 0.00 0.00 38 1023.0
20210723150923 73 220 0.0 1.7 0.00 0.00 0.00 39 1023.0
20210723150818 73 221 0.0 1.7 0.00 0.00 0.00 39 1023.0
20210723150718 73 221 0.0 1.7 0.00 0.00 0.00 40 1023.0
20210723150618 73 221 0.0 1.7 0.00 0.00 0.00 40 1023.0
20210723150514 73 221 0.0 1.7 0.00 0.00 0.00 39 1023.0
20210723150407 73 221 0.0 1.7 0.00 0.00 0.00 39 1023.0
20210723150308 73 221 0.0 1.7 0.00 0.00 0.00 39 1023.0
20210723150209 72 220 0.0 1.7 0.00 0.00 0.00 40 1023.0
20210723150108 72 221 0.0 1.7 0.00 0.00 0.00 40 1023.0
20210723150036 72 220 0.0 1.7 0.00 0.00 0.00 40 1023.0
20210723150004 72 220 0.0 1.7 0.00 0.00 0.00 40 1023.0
20210723145858 72 228 0.0 1.7 0.00 0.00 0.00 40 1023.0
20210723145753 72 228 0.0 1.7 0.00 0.00 0.00 40 1023.0
20210723145643 72 228 0.0 1.7 0.00 0.00 0.00 40 1023.0
20210723145536 71 228 0.0 1.7 0.00 0.00 0.00 41 1023.0
20210723145441 71 228 0.0 1.7 0.00 0.00 0.00 42 1023.0
20210723145337 71 229 0.0 1.7 0.00 0.00 0.00 43 1023.0
20210723145238 71 229 0.0 1.7 0.00 0.00 0.00 43 1023.0
20210723145137 71 275 0.0 0.0 0.00 0.00 0.00 44 1023.0
20210723145039 70 275 0.0 0.0 0.00 0.00 0.00 44 1023.0
20210723144928 70 275 0.0 0.0 0.00 0.00 0.00 45 1023.0
20210723144818 69 275 0.0 0.0 0.00 0.00 0.00 46 1023.0
20210723144719 69 275 0.0 0.0 0.00 0.00 0.00 46 1023.0
20210723144556 69 275 0.0 0.0 0.00 0.00 0.00 46 1023.0
20210723144525 69 275 0.0 0.0 0.00 0.00 0.00 45 1023.0
20210723144439 68 275 0.0 0.0 0.00 0.00 0.00 45 1023.0
20210723144337 68 275 0.0 0.0 0.00 0.00 0.00 44 1023.0
20210723144238 68 275 0.0 0.0 0.00 0.00 0.00 44 1023.0
20210723144139 68 275 0.0 0.0 0.00 0.00 0.00 44 1023.0
20210723144016 67 275 0.0 0.0 0.00 0.00 0.00 45 1023.0
20210723143929 67 275 0.0 0.0 0.00 0.00 0.00 45 1023.0
20210723143823 67 275 0.0 0.0 0.00 0.00 0.00 46 1023.0
20210723143708 67 275 0.0 0.0 0.00 0.00 0.00 46 1023.0
20210723143558 67 275 0.0 0.0 0.00 0.00 0.00 45 1023.0
20210723143502 66 275 0.0 0.0 0.00 0.00 0.00 46 1023.0
20210723143444 66 275 0.0 0.0 0.00 0.00 0.00 46 1023.0
20210723143341 66 275 0.0 0.0 0.00 0.00 0.00 46 1023.0
20210723143236 66 275 0.0 0.0 0.00 0.00 0.00 48 1023.0
20210723143135 66 275 0.0 0.0 0.00 0.00 0.00 50 1023.0
20210723143035 66 275 0.0 0.0 0.00 0.00 0.00 49 1023.0
20210723142957 66 275 0.0 0.0 0.00 0.00 0.00 50 1023.0
20210723142936 65 275 0.0 0.0 0.00 0.00 0.00 51 1023.0
20210723142826 65 275 0.0 0.0 0.00 0.00 0.00 50 1023.0
20210723142724 65 275 0.0 0.0 0.00 0.00 0.00 51 1023.0
20210723142615 65 275 0.0 0.0 0.00 0.00 0.00 51 1022.8
20210723142514 65 275 0.0 0.0 0.00 0.00 0.00 50 1022.8
20210723142456 65 275 0.0 0.0 0.00 0.00 0.00 50 1022.8
20210723142410 65 275 0.0 0.0 0.00 0.00 0.00 48 1022.8
20210723142256 64 275 0.0 0.0 0.00 0.00 0.00 48 1022.8
20210723142148 64 275 0.0 0.0 0.00 0.00 0.00 50 1022.8
20210723142048 64 275 0.0 0.0 0.00 0.00 0.00 50 1022.8
20210723141938 64 275 0.0 0.0 0.00 0.00 0.00 49 1022.8
20210723141839 64 275 0.0 0.0 0.00 0.00 0.00 49 1022.8
20210723141735 63 275 0.0 1.7 0.00 0.00 0.00 51 1022.8
20210723141617 63 275 0.0 1.7 0.00 0.00 0.00 51 1022.8
20210723141518 63 275 0.0 1.7 0.00 0.00 0.00 49 1022.8
20210723141453 63 275 0.0 1.7 0.00 0.00 0.00 49 1022.8
20210723141418 63 275 0.0 1.7 0.00 0.00 0.00 50 1022.8
20210723141319 63 275 0.0 1.7 0.00 0.00 0.00 49 1022.8
20210723141217 63 275 0.0 1.7 0.00 0.00 0.00 50 1022.6
20210723141109 62 275 0.0 1.7 0.00 0.00 0.00 52 1022.6
20210723141007 62 275 0.0 1.7 0.00 0.00 0.00 53 1022.6
20210723140948 62 275 0.0 1.7 0.00 0.00 0.00 53 1022.6
20210723140904 62 275 0.0 1.7 0.00 0.00 0.00 52 1022.6
20210723140759 62 275 0.0 1.7 0.00 0.00 0.00 52 1022.6
20210723140658 62 275 0.0 1.7 0.00 0.00 0.00 54 1022.6
20210723140559 62 275 0.0 0.0 0.00 0.00 0.00 55 1022.6
20210723140446 62 275 0.0 0.0 0.00 0.00 0.00 53 1022.6
20210723140337 62 275 0.0 0.0 0.00 0.00 0.00 53 1022.6
20210723140229 61 275 0.0 0.0 0.00 0.00 0.00 53 1022.6
20210723140128 61 275 0.0 0.0 0.00 0.00 0.00 54 1022.6
20210723140019 61 275 0.0 0.9 0.00 0.00 0.00 55 1022.6
20210723135936 61 275 0.0 1.7 0.00 0.00 0.00 53 1022.6
20210723135916 61 275 0.0 1.7 0.00 0.00 0.00 52 1022.6
20210723135757 61 275 0.0 1.7 0.00 0.00 0.00 53 1022.6
20210723135655 61 275 0.0 1.7 0.00 0.00 0.00 54 1022.4
20210723135538 61 275 0.0 1.7 0.00 0.00 0.00 55 1022.4
20210723135439 61 275 0.0 1.7 0.00 0.00 0.00 55 1022.4
20210723135339 61 275 0.0 1.7 0.00 0.00 0.00 54 1022.4
20210723135238 60 275 0.0 1.7 0.00 0.00 0.00 53 1022.4
20210723135123 60 275 0.0 1.7 0.00 0.00 0.00 52 1022.4
20210723135019 60 275 0.0 1.7 0.00 0.00 0.00 53 1022.4
20210723134936 60 275 0.0 1.7 0.00 0.00 0.00 53 1022.4
20210723134919 60 275 0.0 1.7 0.00 0.00 0.00 54 1022.4
20210723134813 60 275 0.0 1.7 0.00 0.00 0.00 53 1022.4
20210723134708 60 275 0.0 0.0 0.00 0.00 0.00 53 1022.4
20210723134546 60 276 0.0 1.7 0.00 0.00 0.00 52 1022.4
20210723134438 60 276 0.0 1.7 0.00 0.00 0.00 52 1022.4
20210723134318 60 276 0.0 1.7 0.00 0.00 0.00 51 1022.4
20210723134202 60 276 0.0 1.7 0.00 0.00 0.00 51 1022.3
20210723134055 60 276 0.0 1.7 0.00 0.00 0.00 50 1022.3
20210723133931 60 276 0.0 1.7 0.00 0.00 0.00 51 1022.3
20210723133828 60 276 0.0 1.7 0.00 0.00 0.00 51 1022.3
20210723133728 60 276 0.0 1.7 0.00 0.00 0.00 51 1022.3
20210723133626 60 276 0.0 1.7 0.00 0.00 0.00 51 1022.3
20210723133526 60 276 0.0 0.9 0.00 0.00 0.00 50 1022.3
20210723133428 60 276 0.0 0.9 0.00 0.00 0.00 50 1022.3
20210723133359 60 276 0.0 0.9 0.00 0.00 0.00 50 1022.3
20210723133255 60 276 0.0 0.9 0.00 0.00 0.00 48 1022.3
20210723133140 60 276 0.0 0.9 0.00 0.00 0.00 49 1022.3
20210723133040 60 276 0.0 0.9 0.00 0.00 0.00 49 1022.3
20210723132919 60 276 0.0 0.9 0.00 0.00 0.00 48 1022.3
20210723132830 60 277 0.0 0.9 0.00 0.00 0.00 48 1022.3
20210723132722 60 276 0.0 1.7 0.00 0.00 0.00 49 1022.3
20210723132603 60 277 0.0 1.7 0.00 0.00 0.00 47 1022.2
20210723132503 60 276 0.0 1.7 0.00 0.00 0.00 48 1022.2
20210723132419 60 277 0.0 1.7 0.00 0.00 0.00 48 1022.2
20210723132403 60 277 0.0 1.7 0.00 0.00 0.00 47 1022.2
20210723132301 60 277 1.7 1.7 0.00 0.00 0.00 48 1022.2
20210723132201 60 277 1.7 1.7 0.00 0.00 0.00 47 1022.2
20210723132101 60 277 1.7 1.7 0.00 0.00 0.00 46 1022.2
20210723132000 60 276 1.7 1.7 0.00 0.00 0.00 45 1022.2
20210723131918 60 277 1.7 1.7 0.00 0.00 0.00 46 1022.2
20210723131858 60 276 1.7 1.7 0.00 0.00 0.00 46 1022.2
20210723131748 60 277 1.7 3.5 0.00 0.00 0.00 47 1022.2
20210723131650 60 277 1.7 3.5 0.00 0.00 0.00 46 1022.2
20210723131542 60 277 1.7 3.5 0.00 0.00 0.00 45 1022.2
20210723131421 60 276 1.7 3.5 0.00 0.00 0.00 45 1022.2
20210723131415 60 277 1.7 3.5 0.00 0.00 0.00 45 1022.2
20210723131320 60 277 1.7 3.5 0.00 0.00 0.00 45 1022.2
20210723131210 60 277 0.0 3.5 0.00 0.00 0.00 45 1022.1
20210723131110 60 277 0.0 3.5 0.00 0.00 0.00 45 1022.1
20210723131008 60 277 0.0 3.5 0.00 0.00 0.00 45 1022.1
20210723130907 60 277 0.0 3.5 0.00 0.00 0.00 45 1022.1
20210723130856 60 277 0.0 3.5 0.00 0.00 0.00 45 1022.1
20210723130808 60 277 0.0 3.5 0.00 0.00 0.00 45 1022.1
20210723130701 60 277 0.0 3.5 0.00 0.00 0.00 45 1022.1
20210723130556 60 277 0.0 3.5 0.00 0.00 0.00 45 1022.1
20210723130456 60 277 0.0 2.6 0.00 0.00 0.00 46 1022.1
20210723130356 60 277 0.0 2.6 0.00 0.00 0.00 47 1022.1
20210723130341 60 277 0.0 2.6 0.00 0.00 0.00 46 1022.1
20210723130239 60 277 0.0 1.7 0.00 0.00 0.00 45 1022.1
20210723130135 61 277 0.0 1.7 0.00 0.00 0.00 45 1022.1
20210723130028 61 277 0.0 1.7 0.00 0.00 0.00 45 1022.1
20210723125925 61 277 0.0 0.9 0.00 0.00 0.00 45 1022.1
20210723125853 61 277 0.0 0.9 0.00 0.00 0.00 45 1022.1
20210723125819 61 277 0.0 0.9 0.00 0.00 0.00 46 1022.1
20210723125707 61 277 0.0 0.9 0.00 0.00 0.00 46 1021.8
20210723125603 61 277 0.0 0.9 0.00 0.00 0.00 45 1021.8
20210723125458 61 277 0.0 0.0 0.00 0.00 0.00 45 1021.8
20210723125355 61 277 0.0 0.0 0.00 0.00 0.00 45 1021.8
20210723125224 61 277 1.7 0.0 0.00 0.00 0.00 44 1021.8
20210723125114 61 277 1.7 0.0 0.00 0.00 0.00 44 1021.8
20210723125009 61 277 1.7 0.0 0.00 0.00 0.00 44 1021.8
20210723124902 61 277 1.7 1.7 0.00 0.00 0.00 44 1021.8
20210723124825 61 277 1.7 2.6 0.00 0.00 0.00 44 1021.8
20210723124740 61 277 1.7 2.6 0.00 0.00 0.00 44 1021.8
20210723124633 61 277 1.7 2.6 0.00 0.00 0.00 44 1021.8
20210723124516 61 277 1.7 3.5 0.00 0.00 0.00 44 1021.8
20210723124355 61 277 1.7 3.5 0.00 0.00 0.00 44 1021.8
20210723124319 61 277 1.7 3.5 0.00 0.00 0.00 44 1021.8
20210723124245 61 277 0.0 3.5 0.00 0.00 0.00 43 1021.8
20210723124128 61 277 0.0 3.5 0.00 0.00 0.00 44 1021.7
20210723124030 61 277 0.0 3.5 0.00 0.00 0.00 45 1021.7
20210723123928 61 277 0.0 3.5 0.00 0.00 0.00 47 1021.7
20210723123825 61 277 0.0 3.5 0.00 0.00 0.00 46 1021.7
20210723123803 61 277 0.0 3.5 0.00 0.00 0.00 45 1021.7
20210723123725 61 277 0.0 3.5 0.00 0.00 0.00 45 1021.7
20210723123622 61 278 0.0 3.5 0.00 0.00 0.00 46 1021.7
20210723123519 61 272 0.0 3.5 0.00 0.00 0.00 45 1021.7
20210723123421 61 271 0.0 2.6 0.00 0.00 0.00 44 1021.7
20210723123321 61 271 0.0 2.6 0.00 0.00 0.00 44 1021.7
20210723123301 61 271 0.9 2.6 0.00 0.00 0.00 44 1021.7
20210723123221 61 271 0.9 2.6 0.00 0.00 0.00 43 1021.7
20210723123118 61 271 0.9 2.6 0.00 0.00 0.00 43 1021.7
20210723123019 62 271 0.9 2.6 0.00 0.00 0.00 43 1021.7
20210723122919 62 271 0.9 2.6 0.00 0.00 0.00 44 1021.7
20210723122818 62 271 0.9 2.6 0.00 0.00 0.00 45 1021.7
20210723122736 62 271 0.9 2.6 0.00 0.00 0.00 46 1021.7
20210723122718 62 271 0.9 2.6 0.00 0.00 0.00 45 1021.6
20210723122618 62 271 0.9 2.6 0.00 0.00 0.00 45 1021.6
20210723122515 62 271 0.9 1.7 0.00 0.00 0.00 46 1021.6
20210723122407 62 271 0.9 2.6 0.00 0.00 0.00 44 1021.6
20210723122305 62 271 1.7 2.6 0.00 0.00 0.00 44 1021.6
20210723122237 62 271 1.7 2.6 0.00 0.00 0.00 44 1021.6
20210723122154 62 271 1.7 2.6 0.00 0.00 0.00 44 1021.6
20210723122045 62 271 1.7 3.5 0.00 0.00 0.00 45 1021.6
20210723121918 62 271 1.7 3.5 0.00 0.00 0.00 45 1021.6
20210723121817 62 271 1.7 3.5 0.00 0.00 0.00 45 1021.6
20210723121708 62 271 1.7 3.5 0.00 0.00 0.00 45 1021.6
20210723121608 62 271 1.7 3.5 0.00 0.00 0.00 44 1021.6
20210723121516 62 271 1.7 3.5 0.00 0.00 0.00 44 1021.6
20210723121408 62 271 1.7 3.5 0.00 0.00 0.00 44 1021.6
20210723121307 62 271 0.9 3.5 0.00 0.00 0.00 45 1021.6
20210723121203 62 271 0.9 3.5 0.00 0.00 0.00 43 1021.6
20210723121100 62 267 0.9 3.5 0.00 0.00 0.00 43 1021.6
20210723120958 62 267 0.9 3.5 0.00 0.00 0.00 43 1021.6
20210723120858 62 267 0.9 3.5 0.00 0.00 0.00 43 1021.6
20210723120758 62 267 0.9 3.5 0.00 0.00 0.00 44 1021.6
20210723120724 62 267 0.9 3.5 0.00 0.00 0.00 43 1021.6
20210723120653 62 266 0.9 3.5 0.00 0.00 0.00 44 1021.6
20210723120553 62 266 0.9 3.5 0.00 0.00 0.00 44 1021.6
20210723120448 62 266 0.9 3.5 0.00 0.00 0.00 44 1021.6
20210723120340 62 266 0.9 3.5 0.00 0.00 0.00 43 1021.6
20210723120240 62 270 1.7 2.6 0.00 0.00 0.00 44 1021.6
20210723120216 62 270 1.7 2.6 0.00 0.00 0.00 43 1021.6
20210723120135 62 270 1.7 2.6 0.00 0.00 0.00 43 1021.6
20210723120035 62 270 1.7 2.6 0.00 0.00 0.00 43 1021.6
20210723115934 62 270 1.7 2.6 0.00 0.00 0.00 43 1021.6
20210723115827 62 270 1.7 2.6 0.00 0.00 0.00 44 1021.6
20210723115714 62 270 1.7 2.6 0.00 0.00 0.00 43 1021.6
20210723115617 62 270 1.7 2.6 0.00 0.00 0.00 43 1021.6
20210723115509 62 270 1.7 2.6 0.00 0.00 0.00 42 1021.6
20210723115400 62 270 1.7 2.6 0.00 0.00 0.00 43 1021.6
20210723115301 62 270 1.7 2.6 0.00 0.00 0.00 43 1021.6
20210723115200 62 270 1.7 2.6 0.00 0.00 0.00 43 1021.6
20210723115101 62 270 1.7 2.6 0.00 0.00 0.00 43 1021.6
20210723114958 62 270 1.7 2.6 0.00 0.00 0.00 43 1021.6
20210723114843 62 270 1.7 2.6 0.00 0.00 0.00 43 1021.6
20210723114739 62 270 1.7 2.6 0.00 0.00 0.00 43 1021.6
20210723114635 62 270 1.7 2.6 0.00 0.00 0.00 43 1021.6
20210723114536 62 270 1.7 2.6 0.00 0.00 0.00 45 1021.6
20210723114432 62 270 1.7 2.6 0.00 0.00 0.00 44 1021.6
20210723114320 62 270 1.7 2.6 0.00 0.00 0.00 44 1021.6
20210723114220 62 270 0.9 3.5 0.00 0.00 0.00 43 1021.6
20210723114156 62 270 0.9 3.5 0.00 0.00 0.00 43 1021.6
20210723114117 62 270 0.9 3.5 0.00 0.00 0.00 42 1021.6
20210723114018 62 270 0.9 3.5 0.00 0.00 0.00 42 1021.6
20210723113918 62 270 0.9 3.5 0.00 0.00 0.00 43 1021.6
20210723113817 62 270 0.9 3.5 0.00 0.00 0.00 44 1021.6
20210723113705 62 270 0.9 3.5 0.00 0.00 0.00 44 1021.6
20210723113649 62 271 0.9 3.5 0.00 0.00 0.00 44 1021.6
20210723113607 62 270 0.9 3.5 0.00 0.00 0.00 44 1021.6
20210723113504 62 270 0.9 3.5 0.00 0.00 0.00 43 1021.6
20210723113402 62 269 0.9 3.5 0.00 0.00 0.00 43 1021.6
20210723113251 62 269 1.7 3.5 0.00 0.00 0.00 43 1021.6
20210723113148 62 276 1.7 3.5 0.00 0.00 0.00 43 1021.6
20210723113033 63 276 1.7 1.7 0.00 0.00 0.00 43 1021.6
20210723112933 63 275 1.7 1.7 0.00 0.00 0.00 43 1021.6
20210723112832 63 276 1.7 1.7 0.00 0.00 0.00 42 1021.6
20210723112731 63 276 1.7 1.7 0.00 0.00 0.00 42 1021.6
20210723112648 63 275 1.7 2.6 0.00 0.00 0.00 44 1021.6
20210723112628 63 276 1.7 2.6 0.00 0.00 0.00 44 1021.6
20210723112525 63 276 1.7 2.6 0.00 0.00 0.00 43 1021.6
20210723112416 63 276 1.7 2.6 0.00 0.00 0.00 43 1021.6
20210723112258 63 276 1.7 2.6 0.00 0.00 0.00 42 1021.6
20210723112150 63 276 1.7 2.6 0.00 0.00 0.00 42 1021.6
20210723112056 63 276 1.7 2.6 0.00 0.00 0.00 42 1021.6
20210723111956 63 276 1.7 2.6 0.00 0.00 0.00 42 1021.6
20210723111844 63 276 1.7 2.6 0.00 0.00 0.00 43 1021.6
20210723111740 63 276 1.7 2.6 0.00 0.00 0.00 43 1021.6
20210723111640 63 276 1.7 3.5 0.00 0.00 0.00 43 1021.6
20210723111527 63 276 1.7 3.5 0.00 0.00 0.00 42 1021.6
20210723111429 63 276 1.7 3.5 0.00 0.00 0.00 41 1021.6
20210723111323 63 276 1.7 3.5 0.00 0.00 0.00 42 1021.6
20210723111222 63 276 1.7 3.5 0.00 0.00 0.00 42 1021.7
20210723111116 63 276 1.7 3.5 0.00 0.00 0.00 42 1021.7
20210723111017 63 276 1.7 3.5 0.00 0.00 0.00 42 1021.7
20210723110852 63 276 1.7 3.5 0.00 0.00 0.00 42 1021.7
20210723110752 63 276 1.7 3.5 0.00 0.00 0.00 42 1021.7
20210723110643 63 276 1.7 2.6 0.00 0.00 0.00 41 1021.7
20210723110542 63 275 1.7 2.6 0.00 0.00 0.00 41 1021.7
20210723110441 63 275 1.7 2.6 0.00 0.00 0.00 42 1021.7
20210723110339 63 275 1.7 2.6 0.00 0.00 0.00 42 1021.7
20210723110230 63 275 0.0 2.6 0.00 0.00 0.00 41 1021.7
20210723110141 63 275 0.0 2.6 0.00 0.00 0.00 41 1021.7
20210723110126 63 276 0.0 2.6 0.00 0.00 0.00 41 1021.7
20210723110021 63 275 0.0 2.6 0.00 0.00 0.00 41 1021.7
20210723105903 63 276 0.0 2.6 0.00 0.00 0.00 42 1021.7
20210723105759 63 275 0.0 2.6 0.00 0.00 0.00 41 1021.7
20210723105640 63 275 0.0 2.6 0.00 0.00 0.00 42 1021.7
20210723105538 63 275 0.0 2.6 0.00 0.00 0.00 41 1021.7
20210723105425 63 276 0.0 1.7 0.00 0.00 0.00 41 1021.7
20210723105324 63 275 0.0 1.7 0.00 0.00 0.00 41 1021.7
20210723105223 63 276 1.7 1.7 0.00 0.00 0.00 42 1021.7
20210723105121 63 276 1.7 1.7 0.00 0.00 0.00 41 1021.7
20210723105015 63 276 1.7 2.6 0.00 0.00 0.00 41 1021.7
20210723104915 63 276 1.7 2.6 0.00 0.00 0.00 41 1021.7
20210723104815 63 276 1.7 2.6 0.00 0.00 0.00 41 1021.7
20210723104713 64 275 1.7 2.6 0.00 0.00 0.00 41 1021.7
20210723104613 64 276 1.7 2.6 0.00 0.00 0.00 41 1021.7
20210723104515 64 276 1.7 2.6 0.00 0.00 0.00 41 1021.7
20210723104410 64 275 1.7 2.6 0.00 0.00 0.00 41 1021.7
20210723104312 64 276 1.7 2.6 0.00 0.00 0.00 41 1021.7
20210723104208 64 275 1.7 2.6 0.00 0.00 0.00 41 1021.7
20210723104126 64 276 1.7 2.6 0.00 0.00 0.00 40 1021.7
20210723104108 64 275 1.7 2.6 0.00 0.00 0.00 40 1021.7
20210723104008 64 276 1.7 3.5 0.00 0.00 0.00 40 1021.7
20210723103857 64 276 1.7 3.5 0.00 0.00 0.00 40 1021.7
20210723103758 64 276 1.7 3.5 0.00 0.00 0.00 40 1021.7
20210723103658 64 276 1.7 3.5 0.00 0.00 0.00 40 1021.7
20210723103621 64 276 1.7 3.5 0.00 0.00 0.00 40 1021.7
20210723103552 64 276 1.7 3.5 0.00 0.00 0.00 40 1021.7
20210723103450 64 276 1.7 3.5 0.00 0.00 0.00 41 1021.7
20210723103337 64 275 1.7 3.5 0.00 0.00 0.00 41 1021.7
20210723103236 64 275 0.9 3.5 0.00 0.00 0.00 40 1021.7
20210723103135 64 276 0.9 3.5 0.00 0.00 0.00 42 1021.7
20210723103113 64 276 0.9 3.5 0.00 0.00 0.00 41 1021.7
20210723103032 64 276 0.9 3.5 0.00 0.00 0.00 41 1021.7
20210723102934 64 278 0.9 3.5 0.00 0.00 0.00 41 1021.7
20210723102825 64 278 0.9 3.5 0.00 0.00 0.00 41 1021.7
20210723102722 64 279 0.9 2.6 0.00 0.00 0.00 41 1021.7
20210723102615 64 278 0.9 2.6 0.00 0.00 0.00 41 1021.6
20210723102517 64 278 0.9 2.6 0.00 0.00 0.00 41 1021.6
20210723102417 64 278 0.9 2.6 0.00 0.00 0.00 41 1021.6
20210723102318 64 278 1.7 3.5 0.00 0.00 0.00 41 1021.6
20210723102219 64 278 1.7 3.5 0.00 0.00 0.00 41 1021.6
20210723102106 64 278 1.7 3.5 0.00 0.00 0.00 40 1021.6
20210723102010 64 278 1.7 3.5 0.00 0.00 0.00 40 1021.6
20210723101855 64 278 1.7 3.5 0.00 0.00 0.00 40 1021.6
20210723101722 65 278 1.7 3.5 0.00 0.00 0.00 40 1021.6
20210723101606 65 278 1.7 3.5 0.00 0.00 0.00 41 1021.6
20210723101516 65 278 1.7 3.5 0.00 0.00 0.00 41 1021.6
20210723101415 65 278 1.7 3.5 0.00 0.00 0.00 41 1021.6
20210723101314 65 274 0.9 3.5 0.00 0.00 0.00 42 1021.6
20210723101215 65 274 0.9 3.5 0.00 0.00 0.00 41 1021.6
20210723101113 65 274 0.9 3.5 0.00 0.00 0.00 40 1021.6
20210723101046 65 274 0.9 3.5 0.00 0.00 0.00 40 1021.6
20210723101008 65 274 0.9 3.5 0.00 0.00 0.00 41 1021.6
20210723100906 65 274 0.9 3.5 0.00 0.00 0.00 41 1021.6
20210723100804 65 274 0.9 3.5 0.00 0.00 0.00 40 1021.6
20210723100700 65 275 0.9 3.5 0.00 0.00 0.00 41 1021.6
20210723100546 65 274 0.9 3.5 0.00 0.00 0.00 40 1021.6
20210723100457 65 274 0.9 2.6 0.00 0.00 0.00 40 1021.6
20210723100354 66 275 0.9 2.6 0.00 0.00 0.00 41 1021.6
20210723100251 66 274 0.9 2.6 0.00 0.00 0.00 40 1021.6
20210723100110 66 274 0.9 2.6 0.00 0.00 0.00 40 1021.6
20210723100043 66 274 0.9 2.6 0.00 0.00 0.00 40 1021.6
20210723100010 66 274 0.9 2.6 0.00 0.00 0.00 40 1021.6
20210723095908 66 274 0.9 2.6 0.00 0.00 0.00 39 1021.6
20210723095801 66 274 0.9 2.6 0.00 0.00 0.00 39 1021.6
20210723095658 66 274 0.9 2.6 0.00 0.00 0.00 39 1021.5
20210723095543 66 274 0.9 2.6 0.00 0.00 0.00 38 1021.5
20210723095447 66 274 0.9 2.6 0.00 0.00 0.00 39 1021.5
20210723095338 66 274 0.9 2.6 0.00 0.00 0.00 38 1021.5
20210723095238 66 274 1.7 2.6 0.00 0.00 0.00 38 1021.5
20210723095137 66 274 1.7 2.6 0.00 0.00 0.00 38 1021.5
20210723095038 66 274 1.7 2.6 0.00 0.00 0.00 38 1021.5
20210723094925 66 274 1.7 2.6 0.00 0.00 0.00 38 1021.5
20210723094818 66 274 1.7 2.6 0.00 0.00 0.00 39 1021.5
20210723094717 67 274 1.7 2.6 0.00 0.00 0.00 39 1021.5
20210723094614 67 274 1.7 2.6 0.00 0.00 0.00 38 1021.5
20210723094518 67 274 1.7 2.6 0.00 0.00 0.00 39 1021.5
20210723094412 67 274 1.7 2.6 0.00 0.00 0.00 37 1021.5
20210723094313 67 275 1.7 2.6 0.00 0.00 0.00 37 1021.5
20210723094212 67 274 1.7 2.6 0.00 0.00 0.00 38 1021.5
20210723094113 67 274 1.7 2.6 0.00 0.00 0.00 38 1021.5
20210723094041 67 274 1.7 2.6 0.00 0.00 0.00 38 1021.5
20210723094010 67 274 1.7 2.6 0.00 0.00 0.00 37 1021.5
20210723093859 67 274 1.7 2.6 0.00 0.00 0.00 37 1021.5
20210723093757 67 274 1.7 2.6 0.00 0.00 0.00 37 1021.5
20210723093658 67 274 1.7 3.5 0.00 0.00 0.00 37 1021.5
20210723093540 67 274 1.7 3.5 0.00 0.00 0.00 37 1021.5
20210723093458 67 274 1.7 3.5 0.00 0.00 0.00 37 1021.5
20210723093358 67 274 1.7 3.5 0.00 0.00 0.00 37 1021.5
20210723093258 67 275 0.0 3.5 0.00 0.00 0.00 37 1021.5
20210723093158 67 285 0.0 3.5 0.00 0.00 0.00 37 1021.5
20210723093039 67 285 0.0 3.5 0.00 0.00 0.00 37 1021.5
20210723092956 67 285 0.0 3.5 0.00 0.00 0.00 36 1021.5
20210723092854 67 285 0.0 3.5 0.00 0.00 0.00 36 1021.5
20210723092750 67 285 0.0 3.5 0.00 0.00 0.00 36 1021.5
20210723092652 68 285 0.0 3.5 0.00 0.00 0.00 37 1021.4
20210723092551 68 288 0.0 3.5 0.00 0.00 0.00 36 1021.4
20210723092536 68 286 0.0 3.5 0.00 0.00 0.00 36 1021.4
20210723092450 68 268 0.0 3.5 0.00 0.00 0.00 36 1021.4
20210723092350 68 268 0.0 1.7 0.00 0.00 0.00 36 1021.4
20210723092239 68 268 1.7 2.6 0.00 0.00 0.00 36 1021.4
20210723092138 68 268 1.7 2.6 0.00 0.00 0.00 36 1021.4
20210723092038 68 268 1.7 3.5 0.00 0.00 0.00 36 1021.4
20210723091909 68 268 1.7 3.5 0.00 0.00 0.00 35 1021.4
20210723091749 68 268 1.7 3.5 0.00 0.00 0.00 36 1021.4
20210723091642 69 39 1.7 3.5 0.00 0.00 0.00 36 1021.4
20210723091520 69 40 1.7 3.5 0.00 0.00 0.00 36 1021.4
20210723091425 69 40 1.7 3.5 0.00 0.00 0.00 37 1021.4
20210723091320 69 40 1.7 3.5 0.00 0.00 0.00 36 1021.4
20210723091217 69 40 0.9 3.5 0.00 0.00 0.00 35 1021.4
20210723091118 69 40 0.9 3.5 0.00 0.00 0.00 34 1021.4
20210723091006 69 303 0.9 3.5 0.00 0.00 0.00 35 1021.4
20210723090914 69 303 0.9 3.5 0.00 0.00 0.00 35 1021.4
20210723090813 69 305 0.9 3.5 0.00 0.00 0.00 34 1021.4
20210723090713 69 98 0.9 3.5 0.00 0.00 0.00 34 1021.4
20210723090612 69 98 0.9 3.5 0.00 0.00 0.00 34 1021.4
20210723090512 69 78 0.9 3.5 0.00 0.00 0.00 34 1021.4
20210723090456 69 79 0.9 3.5 0.00 0.00 0.00 34 1021.4
20210723090413 69 169 0.9 3.5 0.00 0.00 0.00 36 1021.4
20210723090313 69 171 1.7 2.6 0.00 0.00 0.00 34 1021.4
20210723090209 70 219 1.7 2.6 0.00 0.00 0.00 34 1021.4
20210723090105 70 218 1.7 2.6 0.00 0.00 0.00 35 1021.4
20210723085958 70 218 1.7 2.6 0.00 0.00 0.00 35 1021.4
20210723085858 70 225 1.7 2.6 0.00 0.00 0.00 34 1021.4
20210723085738 70 225 1.7 2.6 0.00 0.00 0.00 34 1021.4
20210723085639 70 225 1.7 5.2 0.00 0.00 0.00 34 1021.1
20210723085537 70 226 1.7 5.2 0.00 0.00 0.00 36 1021.1
20210723085456 70 225 1.7 5.2 0.00 0.00 0.00 35 1021.1
20210723085437 70 225 1.7 5.2 0.00 0.00 0.00 34 1021.1
20210723085335 70 225 1.7 5.2 0.00 0.00 0.00 34 1021.1
20210723085231 70 226 1.7 5.2 0.00 0.00 0.00 34 1021.1
20210723085130 70 225 1.7 5.2 0.00 0.00 0.00 34 1021.1
20210723085023 70 225 1.7 5.2 0.00 0.00 0.00 34 1021.1
20210723084956 70 225 1.7 5.2 0.00 0.00 0.00 34 1021.1
20210723084922 70 225 1.7 5.2 0.00 0.00 0.00 33 1021.1
20210723084820 70 224 1.7 5.2 0.00 0.00 0.00 33 1021.1
20210723084722 70 148 1.7 5.2 0.00 0.00 0.00 32 1021.1
20210723084620 70 267 1.7 4.3 0.00 0.00 0.00 33 1021.1
20210723084516 70 268 1.7 4.3 0.00 0.00 0.00 33 1021.1
20210723084448 70 268 1.7 4.3 0.00 0.00 0.00 33 1021.1
20210723084417 70 267 1.7 4.3 0.00 0.00 0.00 33 1021.1
20210723084309 70 267 0.9 4.3 0.00 0.00 0.00 33 1021.1
20210723084208 70 279 0.9 4.3 0.00 0.00 0.00 33 1021.3
20210723084108 70 283 0.9 4.3 0.00 0.00 0.00 33 1021.3
20210723084008 71 272 0.9 3.5 0.00 0.00 0.00 33 1021.3
20210723083946 71 322 0.9 3.5 0.00 0.00 0.00 33 1021.3
20210723083908 71 322 0.9 3.5 0.00 0.00 0.00 34 1021.3
20210723083807 71 322 0.9 3.5 0.00 0.00 0.00 34 1021.3
20210723083708 71 236 0.9 3.5 0.00 0.00 0.00 33 1021.3
20210723083557 71 197 0.9 3.5 0.00 0.00 0.00 34 1021.3
20210723083447 71 189 0.9 3.5 0.00 0.00 0.00 33 1021.3
20210723083353 71 264 0.9 3.5 0.00 0.00 0.00 34 1021.3
20210723083248 71 263 1.7 4.3 0.00 0.00 0.00 33 1021.3
20210723083147 71 264 1.7 4.3 0.00 0.00 0.00 34 1021.3
20210723083048 71 299 1.7 4.3 0.00 0.00 0.00 32 1021.3
20210723082948 71 177 1.7 4.3 0.00 0.00 0.00 35 1021.3
20210723082848 71 230 1.7 4.3 0.00 0.00 0.00 32 1021.3
20210723082747 71 232 1.7 4.3 0.00 0.00 0.00 32 1021.3
20210723082648 71 232 1.7 4.3 0.00 0.00 0.00 33 1021.1
20210723082547 71 232 1.7 6.1 0.00 0.00 0.00 33 1021.1
20210723082448 71 232 1.7 6.1 0.00 0.00 0.00 32 1021.1
20210723082348 72 250 1.7 6.1 0.00 0.00 0.00 33 1021.1
20210723082248 72 242 3.5 6.1 0.00 0.00 0.00 32 1021.1
20210723082142 72 302 3.5 6.1 0.00 0.00 0.00 32 1021.1
20210723082036 72 254 3.5 6.1 0.00 0.00 0.00 32 1021.1
20210723081934 72 255 3.5 6.1 0.00 0.00 0.00 33 1021.1
20210723081830 72 225 3.5 6.1 0.00 0.00 0.00 32 1021.1
20210723081725 72 240 3.5 6.1 0.00 0.00 0.00 33 1021.1
20210723081625 72 321 3.5 6.1 0.00 0.00 0.00 32 1021.1
20210723081525 72 247 3.5 6.1 0.00 0.00 0.00 32 1021.1
20210723081439 72 291 3.5 6.1 0.00 0.00 0.00 32 1021.1
20210723081425 72 295 3.5 6.1 0.00 0.00 0.00 32 1021.1
20210723081324 72 270 3.5 6.1 0.00 0.00 0.00 32 1021.1
20210723081224 72 301 2.6 6.1 0.00 0.00 0.00 32 1021.1
20210723081121 72 252 2.6 6.1 0.00 0.00 0.00 32 1021.1
20210723081020 72 302 2.6 5.2 0.00 0.00 0.00 31 1021.1
20210723080939 72 325 2.6 5.2 0.00 0.00 0.00 32 1021.1
20210723080921 72 283 2.6 5.2 0.00 0.00 0.00 31 1021.1
20210723080819 72 277 2.6 5.2 0.00 0.00 0.00 32 1021.1
20210723080722 72 318 2.6 5.2 0.00 0.00 0.00 33 1021.1
20210723080620 72 277 2.6 5.2 0.00 0.00 0.00 33 1021.1
20210723080521 72 273 2.6 5.2 0.00 0.00 0.00 32 1021.1
20210723080439 72 289 2.6 5.2 0.00 0.00 0.00 31 1021.1
20210723080419 72 228 2.6 5.2 0.00 0.00 0.00 32 1021.1
20210723080317 72 255 3.5 5.2 0.00 0.00 0.00 32 1021.1
20210723080217 72 268 3.5 5.2 0.00 0.00 0.00 31 1021.1
20210723080119 72 261 3.5 7.8 0.00 0.00 0.00 31 1021.1
20210723080017 72 254 3.5 7.8 0.00 0.00 0.00 31 1021.1
20210723075938 72 265 3.5 7.8 0.00 0.00 0.00 31 1021.1
20210723075918 72 252 3.5 7.8 0.00 0.00 0.00 31 1021.1
20210723075818 72 211 3.5 7.8 0.00 0.00 0.00 31 1021.1
20210723075718 72 234 3.5 7.8 0.00 0.00 0.00 31 1021.3
20210723075618 72 224 3.5 7.8 0.00 0.00 0.00 31 1021.3
20210723075517 72 278 3.5 7.8 0.00 0.00 0.00 31 1021.3
20210723075440 72 277 3.5 7.8 0.00 0.00 0.00 31 1021.3
20210723075418 72 258 3.5 7.8 0.00 0.00 0.00 32 1021.3
20210723075320 72 294 2.6 7.8 0.00 0.00 0.00 31 1021.3
20210723075217 72 282 2.6 7.8 0.00 0.00 0.00 31 1021.3
20210723075118 72 217 2.6 7.8 0.00 0.00 0.00 33 1021.3
20210723075019 72 253 2.6 7.8 0.00 0.00 0.00 32 1021.3
20210723074938 72 265 2.6 7.8 0.00 0.00 0.00 31 1021.3
20210723074919 72 257 2.6 7.8 0.00 0.00 0.00 31 1021.3
20210723074817 72 284 2.6 7.8 0.00 0.00 0.00 32 1021.3
20210723074717 72 236 2.6 7.8 0.00 0.00 0.00 32 1021.3
20210723074617 72 260 2.6 7.8 0.00 0.00 0.00 31 1021.3
20210723074519 72 238 2.6 7.8 0.00 0.00 0.00 32 1021.3
20210723074417 72 277 2.6 7.8 0.00 0.00 0.00 31 1021.3
20210723074317 72 263 2.6 7.8 0.00 0.00 0.00 31 1021.3
20210723074218 72 254 2.6 7.8 0.00 0.00 0.00 32 1021.4
20210723074118 72 245 2.6 7.8 0.00 0.00 0.00 32 1021.4
20210723074010 72 260 2.6 7.8 0.00 0.00 0.00 31 1021.4
20210723073938 72 267 2.6 7.8 0.00 0.00 0.00 31 1021.4
20210723073908 73 289 2.6 7.8 0.00 0.00 0.00 31 1021.4
20210723073808 73 258 2.6 7.8 0.00 0.00 0.00 31 1021.4
20210723073708 73 265 2.6 7.8 0.00 0.00 0.00 31 1021.4
20210723073608 73 285 2.6 7.0 0.00 0.00 0.00 31 1021.4
20210723073508 73 219 2.6 7.0 0.00 0.00 0.00 31 1021.4
20210723073439 73 275 2.6 7.0 0.00 0.00 0.00 31 1021.4
20210723073405 73 297 2.6 7.0 0.00 0.00 0.00 31 1021.4
20210723073303 73 266 3.5 7.0 0.00 0.00 0.00 31 1021.4
20210723073204 73 303 3.5 7.0 0.00 0.00 0.00 31 1021.4
20210723073103 73 258 3.5 7.0 0.00 0.00 0.00 31 1021.4
20210723073002 73 259 3.5 5.2 0.00 0.00 0.00 32 1021.4
20210723072939 73 273 3.5 5.2 0.00 0.00 0.00 31 1021.4
20210723072902 73 280 3.5 6.1 0.00 0.00 0.00 31 1021.4
20210723072802 73 238 3.5 7.8 0.00 0.00 0.00 31 1021.4
20210723072653 73 278 3.5 7.8 0.00 0.00 0.00 31 1021.3
20210723072551 73 286 3.5 9.6 0.00 0.00 0.00 31 1021.3
20210723072438 73 280 3.5 9.6 0.00 0.00 0.00 31 1021.3
20210723072349 73 267 3.5 9.6 0.00 0.00 0.00 31 1021.3
20210723072237 73 256 3.5 9.6 0.00 0.00 0.00 31 1021.3
20210723072137 73 230 3.5 9.6 0.00 0.00 0.00 32 1021.3
20210723072023 73 300 3.5 9.6 0.00 0.00 0.00 31 1021.3
20210723071936 73 245 3.5 9.6 0.00 0.00 0.00 30 1021.3
20210723071923 73 244 3.5 9.6 0.00 0.00 0.00 30 1021.3
20210723071822 73 237 3.5 9.6 0.00 0.00 0.00 30 1021.3
20210723071722 73 314 3.5 9.6 0.00 0.00 0.00 31 1021.3
20210723071623 73 287 3.5 7.0 0.00 0.00 0.00 31 1021.3
20210723071522 73 283 3.5 7.0 0.00 0.00 0.00 30 1021.3
20210723071436 73 236 3.5 6.1 0.00 0.00 0.00 31 1021.3
20210723071422 73 270 3.5 6.1 0.00 0.00 0.00 31 1021.3
20210723071319 73 277 3.5 6.1 0.00 0.00 0.00 30 1021.3
20210723071220 74 269 3.5 6.1 0.00 0.00 0.00 30 1021.3
20210723071119 74 251 3.5 6.1 0.00 0.00 0.00 30 1021.3
20210723071021 74 285 3.5 6.1 0.00 0.00 0.00 31 1021.3
20210723070937 74 283 3.5 6.1 0.00 0.00 0.00 30 1021.3
20210723070920 74 261 3.5 6.1 0.00 0.00 0.00 30 1021.3
20210723070821 74 266 3.5 6.1 0.00 0.00 0.00 30 1021.3
20210723070721 74 237 3.5 6.1 0.00 0.00 0.00 30 1021.3
20210723070620 74 297 3.5 6.1 0.00 0.00 0.00 30 1021.3
20210723070520 74 267 3.5 6.1 0.00 0.00 0.00 30 1021.3
20210723070434 74 268 3.5 6.1 0.00 0.00 0.00 30 1021.3
20210723070418 74 263 3.5 6.1 0.00 0.00 0.00 30 1021.3
20210723070317 74 242 3.5 6.1 0.00 0.00 0.00 30 1021.3
20210723070217 74 273 3.5 6.1 0.00 0.00 0.00 30 1021.3
20210723070118 74 266 3.5 9.6 0.00 0.00 0.00 30 1021.3
20210723070018 74 269 3.5 9.6 0.00 0.00 0.00 30 1021.3
20210723065935 74 281 3.5 9.6 0.00 0.00 0.00 30 1021.3
20210723065917 74 282 3.5 9.6 0.00 0.00 0.00 30 1021.3
20210723065819 74 278 3.5 9.6 0.00 0.00 0.00 30 1021.3
20210723065717 74 262 3.5 9.6 0.00 0.00 0.00 30 1021.0
20210723065615 74 297 3.5 9.6 0.00 0.00 0.00 30 1021.0
20210723065515 74 300 3.5 9.6 0.00 0.00 0.00 30 1021.0
20210723065428 74 272 3.5 9.6 0.00 0.00 0.00 30 1021.0
20210723065415 74 246 3.5 9.6 0.00 0.00 0.00 30 1021.0
20210723065314 74 268 4.3 9.6 0.00 0.00 0.00 30 1021.0
20210723065216 74 248 4.3 9.6 0.00 0.00 0.00 30 1021.0
20210723065115 74 302 4.3 7.8 0.00 0.00 0.00 30 1021.0
20210723065014 74 256 4.3 10.4 0.00 0.00 0.00 30 1021.0
20210723064929 74 267 4.3 10.4 0.00 0.00 0.00 30 1021.0
20210723064913 74 267 4.3 13.9 0.00 0.00 0.00 30 1021.0
20210723064813 74 272 4.3 13.9 0.00 0.00 0.00 30 1021.0
20210723064713 74 305 4.3 13.9 0.00 0.00 0.00 30 1021.0
20210723064612 74 307 4.3 13.9 0.00 0.00 0.00 30 1021.0
20210723064513 74 272 4.3 13.9 0.00 0.00 0.00 30 1021.0
20210723064429 74 276 4.3 13.9 0.00 0.00 0.00 30 1021.0
20210723064410 74 247 4.3 13.9 0.00 0.00 0.00 30 1021.0
20210723064310 74 228 2.6 13.9 0.00 0.00 0.00 30 1021.0
20210723064210 74 278 2.6 13.9 0.00 0.00 0.00 30 1020.9
20210723064110 74 249 2.6 13.9 0.00 0.00 0.00 30 1020.9
20210723064010 74 236 2.6 13.9 0.00 0.00 0.00 30 1020.9
20210723063929 74 273 2.6 13.9 0.00 0.00 0.00 30 1020.9
20210723063910 74 284 2.6 7.8 0.00 0.00 0.00 30 1020.9
20210723063810 74 285 2.6 7.8 0.00 0.00 0.00 30 1020.9
20210723063711 74 326 2.6 7.8 0.00 0.00 0.00 30 1020.9
20210723063611 74 212 2.6 7.0 0.00 0.00 0.00 30 1020.9
20210723063510 74 242 2.6 7.0 0.00 0.00 0.00 30 1020.9
20210723063428 74 260 2.6 6.1 0.00 0.00 0.00 30 1020.9
20210723063410 74 238 2.6 6.1 0.00 0.00 0.00 30 1020.9
20210723063310 74 314 3.5 6.1 0.00 0.00 0.00 30 1020.9
20210723063206 74 267 3.5 7.8 0.00 0.00 0.00 30 1020.9
20210723063105 74 258 3.5 7.8 0.00 0.00 0.00 30 1020.9
20210723063006 74 277 3.5 7.8 0.00 0.00 0.00 30 1020.9
20210723062928 74 268 3.5 7.8 0.00 0.00 0.00 30 1020.9
20210723062906 74 282 3.5 7.8 0.00 0.00 0.00 30 1020.9
20210723062802 74 280 3.5 7.8 0.00 0.00 0.00 30 1020.9
20210723062703 74 254 3.5 7.8 0.00 0.00 0.00 30 1020.8
20210723062600 74 220 3.5 7.8 0.00 0.00 0.00 30 1020.8
20210723062501 74 174 3.5 7.8 0.00 0.00 0.00 30 1020.8
20210723062429 74 274 3.5 7.8 0.00 0.00 0.00 30 1020.8
20210723062400 74 276 3.5 7.8 0.00 0.00 0.00 30 1020.8
20210723062255 74 304 2.6 7.8 0.00 0.00 0.00 30 1020.8
20210723062155 74 266 2.6 7.0 0.00 0.00 0.00 30 1020.8
20210723062056 74 315 2.6 7.0 0.00 0.00 0.00 30 1020.8
20210723061955 74 262 2.6 5.2 0.00 0.00 0.00 30 1020.8
20210723061929 74 258 2.6 6.1 0.00 0.00 0.00 30 1020.8
20210723061855 74 213 2.6 6.1 0.00 0.00 0.00 30 1020.8
20210723061755 74 302 2.6 6.1 0.00 0.00 0.00 30 1020.8
20210723061655 74 228 2.6 6.1 0.00 0.00 0.00 30 1020.8
20210723061555 74 291 2.6 6.1 0.00 0.00 0.00 30 1020.8
20210723061455 74 263 2.6 6.1 0.00 0.00 0.00 30 1020.8
20210723061426 74 264 2.6 6.1 0.00 0.00 0.00 30 1020.8
20210723061356 74 289 2.6 6.1 0.00 0.00 0.00 30 1020.8
20210723061255 74 296 3.5 6.1 0.00 0.00 0.00 30 1020.8
20210723061155 74 267 3.5 6.1 0.00 0.00 0.00 30 1020.8
20210723061055 74 315 3.5 6.1 0.00 0.00 0.00 30 1020.8
20210723060956 74 348 3.5 6.1 0.00 0.00 0.00 30 1020.8
20210723060926 74 248 3.5 6.1 0.00 0.00 0.00 30 1020.8
20210723060855 74 270 3.5 5.2 0.00 0.00 0.00 30 1020.8
20210723060756 74 230 3.5 6.1 0.00 0.00 0.00 30 1020.8
20210723060653 74 230 3.5 6.1 0.00 0.00 0.00 30 1020.8
20210723060553 74 252 3.5 6.1 0.00 0.00 0.00 30 1020.8
20210723060450 74 252 3.5 6.1 0.00 0.00 0.00 30 1020.8
20210723060426 74 289 3.5 6.1 0.00 0.00 0.00 30 1020.8
20210723060350 74 256 3.5 6.1 0.00 0.00 0.00 30 1020.8
20210723060250 74 184 2.6 6.1 0.00 0.00 0.00 30 1020.8
20210723060150 74 233 2.6 6.1 0.00 0.00 0.00 30 1020.8
20210723060048 74 233 2.6 6.1 0.00 0.00 0.00 30 1020.8
20210723055948 73 283 2.6 7.0 0.00 0.00 0.00 30 1020.8
20210723055926 73 204 2.6 7.0 0.00 0.00 0.00 30 1020.8
20210723055849 73 279 2.6 7.0 0.00 0.00 0.00 30 1020.8
20210723055747 73 289 2.6 7.0 0.00 0.00 0.00 30 1020.8
20210723055647 73 314 2.6 7.0 0.00 0.00 0.00 31 1020.8
20210723055549 73 212 2.6 7.0 0.00 0.00 0.00 31 1020.8
20210723055448 73 247 2.6 7.0 0.00 0.00 0.00 31 1020.8
20210723055427 73 245 2.6 7.0 0.00 0.00 0.00 31 1020.8
20210723055348 73 275 2.6 8.7 0.00 0.00 0.00 31 1020.8
20210723055245 72 251 2.6 8.7 0.00 0.00 0.00 31 1020.8
20210723055145 72 224 2.6 8.7 0.00 0.00 0.00 32 1020.8
20210723055045 72 255 2.6 8.7 0.00 0.00 0.00 31 1020.8
20210723054945 72 239 2.6 8.7 0.00 0.00 0.00 31 1020.8
20210723054927 72 244 2.6 8.7 0.00 0.00 0.00 31 1020.8
20210723054845 72 245 2.6 8.7 0.00 0.00 0.00 32 1020.8
20210723054745 71 305 2.6 8.7 0.00 0.00 0.00 32 1020.8
20210723054644 71 264 2.6 8.7 0.00 0.00 0.00 32 1020.8
20210723054546 71 273 2.6 8.7 0.00 0.00 0.00 32 1020.8
20210723054443 71 300 2.6 8.7 0.00 0.00 0.00 33 1020.8
20210723054427 71 260 2.6 8.7 0.00 0.00 0.00 32 1020.8
20210723054343 71 243 2.6 7.0 0.00 0.00 0.00 34 1020.8
20210723054241 71 264 1.7 7.0 0.00 0.00 0.00 33 1020.8
20210723054139 71 262 1.7 5.2 0.00 0.00 0.00 34 1020.4
20210723054041 70 298 1.7 5.2 0.00 0.00 0.00 34 1020.4
20210723053939 70 175 1.7 3.5 0.00 0.00 0.00 35 1020.4
20210723053927 70 280 1.7 3.5 0.00 0.00 0.00 35 1020.4
20210723053837 70 280 1.7 3.5 0.00 0.00 0.00 35 1020.4
20210723053733 70 280 1.7 3.5 0.00 0.00 0.00 35 1020.4
20210723053634 70 280 1.7 3.5 0.00 0.00 0.00 35 1020.4
20210723053513 71 280 1.7 3.5 0.00 0.00 0.00 35 1020.4
20210723053413 71 280 1.7 3.5 0.00 0.00 0.00 35 1020.4
20210723053312 71 274 0.0 3.5 0.00 0.00 0.00 35 1020.4
20210723053205 71 273 0.0 3.5 0.00 0.00 0.00 35 1020.4
20210723053103 71 272 0.0 3.5 0.00 0.00 0.00 34 1020.4
20210723053004 71 256 0.0 2.6 0.00 0.00 0.00 35 1020.4
20210723052916 71 256 0.0 1.7 0.00 0.00 0.00 35 1020.4
20210723052853 71 257 0.0 2.6 0.00 0.00 0.00 36 1020.4
20210723052753 71 256 0.0 2.6 0.00 0.00 0.00 35 1020.4
20210723052653 71 257 0.0 2.6 0.00 0.00 0.00 35 1020.4
20210723052552 71 256 0.0 2.6 0.00 0.00 0.00 35 1020.4
20210723052452 71 257 0.0 2.6 0.00 0.00 0.00 34 1020.4
20210723052414 71 257 0.0 2.6 0.00 0.00 0.00 34 1020.4
20210723052353 71 257 0.0 2.6 0.00 0.00 0.00 34 1020.4
20210723052250 71 257 0.9 2.6 0.00 0.00 0.00 34 1020.4
20210723052143 71 257 0.9 2.6 0.00 0.00 0.00 34 1020.4
20210723052042 71 257 0.9 2.6 0.00 0.00 0.00 35 1020.4
20210723051914 71 257 0.9 2.6 0.00 0.00 0.00 35 1020.4
20210723051835 71 257 0.9 2.6 0.00 0.00 0.00 35 1020.4
20210723051725 71 256 0.9 2.6 0.00 0.00 0.00 34 1020.4
20210723051625 72 256 0.9 2.6 0.00 0.00 0.00 34 1020.4
20210723051526 72 257 0.9 2.6 0.00 0.00 0.00 34 1020.4
20210723051413 72 256 0.9 2.6 0.00 0.00 0.00 34 1020.4
20210723051320 72 262 0.9 2.6 0.00 0.00 0.00 34 1020.4
20210723051219 72 263 1.7 2.6 0.00 0.00 0.00 33 1020.1
20210723051118 72 263 1.7 2.6 0.00 0.00 0.00 34 1020.1
20210723051017 72 263 1.7 2.6 0.00 0.00 0.00 34 1020.1
20210723050915 72 263 1.7 2.6 0.00 0.00 0.00 33 1020.1
20210723050752 72 263 1.7 2.6 0.00 0.00 0.00 34 1020.1
20210723050651 72 263 1.7 2.6 0.00 0.00 0.00 34 1020.1
20210723050548 72 263 1.7 2.6 0.00 0.00 0.00 34 1020.1
20210723050447 72 263 1.7 2.6 0.00 0.00 0.00 33 1020.1
20210723050347 73 263 1.7 2.6 0.00 0.00 0.00 33 1020.1
20210723050243 73 263 0.0 2.6 0.00 0.00 0.00 33 1020.1
20210723050142 73 263 0.0 3.5 0.00 0.00 0.00 33 1020.1
20210723050042 73 263 0.0 3.5 0.00 0.00 0.00 33 1020.1
20210723045943 73 263 0.0 3.5 0.00 0.00 0.00 33 1020.1
20210723045843 73 263 0.0 3.5 0.00 0.00 0.00 33 1020.1
20210723045743 73 263 0.0 3.5 0.00 0.00 0.00 33 1020.1
20210723045643 73 263 0.0 3.5 0.00 0.00 0.00 33 1019.7
20210723045539 73 262 0.0 3.5 0.00 0.00 0.00 33 1019.7
20210723045438 73 263 0.0 3.5 0.00 0.00 0.00 33 1019.7
20210723045338 73 263 0.0 3.5 0.00 0.00 0.00 32 1019.7
20210723045233 74 247 0.0 2.6 0.00 0.00 0.00 32 1019.7
20210723045119 74 221 0.0 2.6 0.00 0.00 0.00 32 1019.7
20210723045019 74 221 0.0 2.6 0.00 0.00 0.00 31 1019.7
20210723044917 74 221 0.0 2.6 0.00 0.00 0.00 32 1019.7
20210723044854 74 221 0.0 2.6 0.00 0.00 0.00 32 1019.7
20210723044814 74 221 0.0 2.6 0.00 0.00 0.00 32 1019.7
20210723044707 74 221 0.0 2.6 0.00 0.00 0.00 32 1019.7
20210723044548 74 221 0.0 2.6 0.00 0.00 0.00 32 1019.7
20210723044448 74 221 0.0 2.6 0.00 0.00 0.00 32 1019.7
20210723044354 74 221 0.0 2.6 0.00 0.00 0.00 32 1019.7
20210723044345 74 221 0.0 2.6 0.00 0.00 0.00 31 1019.7
20210723044242 75 221 0.9 2.6 0.00 0.00 0.00 31 1019.7
20210723044143 75 212 0.9 1.7 0.00 0.00 0.00 31 1019.4
20210723044039 75 188 0.9 1.7 0.00 0.00 0.00 31 1019.4
20210723043936 75 188 0.9 1.7 0.00 0.00 0.00 31 1019.4
20210723043833 75 188 0.9 1.7 0.00 0.00 0.00 31 1019.4
20210723043734 75 188 0.9 1.7 0.00 0.00 0.00 31 1019.4
20210723043623 76 188 0.9 2.6 0.00 0.00 0.00 31 1019.4
20210723043508 76 188 0.9 2.6 0.00 0.00 0.00 31 1019.4
20210723043344 76 188 0.9 3.5 0.00 0.00 0.00 31 1019.4
20210723043255 76 188 1.7 3.5 0.00 0.00 0.00 31 1019.4
20210723043128 76 188 1.7 3.5 0.00 0.00 0.00 31 1019.4
20210723043027 76 188 1.7 3.5 0.00 0.00 0.00 31 1019.4
20210723042915 76 184 1.7 3.5 0.00 0.00 0.00 30 1019.4
20210723042815 76 184 1.7 3.5 0.00 0.00 0.00 30 1019.4
20210723042708 76 182 1.7 7.0 0.00 0.00 0.00 29 1019.2
20210723042608 77 181 1.7 7.0 0.00 0.00 0.00 29 1019.2
20210723042508 77 177 1.7 7.0 0.00 0.00 0.00 29 1019.2
20210723042405 77 237 1.7 7.0 0.00 0.00 0.00 29 1019.2
20210723042306 77 302 1.7 7.0 0.00 0.00 0.00 28 1019.2
20210723042159 77 302 1.7 7.0 0.00 0.00 0.00 29 1019.2
20210723042050 77 302 1.7 7.0 0.00 0.00 0.00 28 1019.2
20210723041950 77 302 1.7 7.0 0.00 0.00 0.00 28 1019.2
20210723041847 77 303 1.7 7.0 0.00 0.00 0.00 28 1019.2
20210723041814 77 302 1.7 7.0 0.00 0.00 0.00 28 1019.2
20210723041738 77 283 1.7 7.0 0.00 0.00 0.00 28 1019.2
20210723041639 77 303 1.7 4.3 0.00 0.00 0.00 28 1019.2
20210723041537 78 303 1.7 4.3 0.00 0.00 0.00 28 1019.2
20210723041435 78 302 1.7 4.3 0.00 0.00 0.00 28 1019.2
20210723041335 78 273 1.7 4.3 0.00 0.00 0.00 28 1019.2
20210723041314 78 273 3.5 4.3 0.00 0.00 0.00 27 1019.2
20210723041235 78 256 3.5 5.2 0.00 0.00 0.00 28 1019.2
20210723041133 78 249 3.5 8.7 0.00 0.00 0.00 28 1018.9
20210723041032 78 250 3.5 8.7 0.00 0.00 0.00 27 1018.9
20210723040931 78 259 3.5 8.7 0.00 0.00 0.00 28 1018.9
20210723040806 78 259 3.5 8.7 0.00 0.00 0.00 27 1018.9
20210723040727 78 311 3.5 8.7 0.00 0.00 0.00 27 1018.9
20210723040628 78 283 3.5 8.7 0.00 0.00 0.00 27 1018.9
20210723040514 78 283 3.5 8.7 0.00 0.00 0.00 27 1018.9
20210723040408 78 75 3.5 8.7 0.00 0.00 0.00 27 1018.9
20210723040307 78 298 3.5 8.7 0.00 0.00 0.00 27 1018.9
20210723040209 78 292 3.5 8.7 0.00 0.00 0.00 27 1018.9
20210723040108 78 300 3.5 7.0 0.00 0.00 0.00 27 1018.9
20210723040008 78 321 3.5 6.1 0.00 0.00 0.00 27 1018.9
20210723035908 78 292 3.5 7.0 0.00 0.00 0.00 27 1018.9
20210723035808 78 342 3.5 7.0 0.00 0.00 0.00 27 1018.9
20210723035802 78 317 3.5 7.0 0.00 0.00 0.00 27 1018.9
20210723035706 78 302 3.5 7.0 0.00 0.00 0.00 27 1018.7
20210723035606 78 311 3.5 7.0 0.00 0.00 0.00 27 1018.7
20210723035504 79 288 3.5 7.0 0.00 0.00 0.00 27 1018.7
20210723035406 79 303 3.5 7.0 0.00 0.00 0.00 27 1018.7
20210723035305 79 306 1.7 7.0 0.00 0.00 0.00 27 1018.7
20210723035256 79 304 1.7 7.0 0.00 0.00 0.00 27 1018.7
20210723035205 79 292 1.7 7.0 0.00 0.00 0.00 27 1018.7
20210723035105 79 306 1.7 7.0 0.00 0.00 0.00 27 1018.7
20210723035006 79 23 1.7 7.0 0.00 0.00 0.00 27 1018.7
20210723034905 79 272 1.7 7.0 0.00 0.00 0.00 26 1018.7
20210723034805 79 267 1.7 7.0 0.00 0.00 0.00 26 1018.7
20210723034757 79 284 1.7 7.0 0.00 0.00 0.00 26 1018.7
20210723034706 79 313 1.7 4.3 0.00 0.00 0.00 27 1018.7
20210723034605 79 300 1.7 4.3 0.00 0.00 0.00 27 1018.7
20210723034506 79 152 1.7 3.5 0.00 0.00 0.00 27 1018.7
20210723034330 80 151 1.7 4.3 0.00 0.00 0.00 27 1018.7
20210723034228 80 109 2.6 4.3 0.00 0.00 0.00 27 1018.7
20210723034128 80 109 2.6 6.1 0.00 0.00 0.00 27 1018.5
20210723034024 80 109 2.6 6.1 0.00 0.00 0.00 27 1018.5
20210723033923 80 109 2.6 6.1 0.00 0.00 0.00 26 1018.5
20210723033815 80 240 2.6 7.8 0.00 0.00 0.00 26 1018.5
20210723033749 80 244 2.6 7.8 0.00 0.00 0.00 26 1018.5
20210723033710 80 274 2.6 7.8 0.00 0.00 0.00 26 1018.5
20210723033608 80 275 2.6 7.8 0.00 0.00 0.00 26 1018.5
20210723033508 80 179 2.6 7.8 0.00 0.00 0.00 26 1018.5
20210723033408 80 182 2.6 7.8 0.00 0.00 0.00 26 1018.5
20210723033307 80 216 4.3 7.8 0.00 0.00 0.00 26 1018.5
20210723033248 80 156 4.3 7.8 0.00 0.00 0.00 26 1018.5
20210723033207 80 191 4.3 7.8 0.00 0.00 0.00 26 1018.5
20210723033108 80 181 4.3 7.8 0.00 0.00 0.00 26 1018.5
20210723033008 80 49 4.3 7.8 0.00 0.00 0.00 26 1018.5
20210723032902 81 135 4.3 7.8 0.00 0.00 0.00 26 1018.5
20210723032759 81 58 4.3 8.7 0.00 0.00 0.00 26 1018.5
20210723032749 81 55 4.3 8.7 0.00 0.00 0.00 26 1018.5
20210723032700 81 185 4.3 8.7 0.00 0.00 0.00 26 1018.1
20210723032557 81 181 4.3 8.7 0.00 0.00 0.00 27 1018.1
20210723032457 81 92 4.3 11.3 0.00 0.00 0.00 26 1018.1
20210723032357 81 91 4.3 11.3 0.00 0.00 0.00 27 1018.1
20210723032254 81 85 3.5 11.3 0.00 0.00 0.00 26 1018.1
20210723032249 81 84 3.5 11.3 0.00 0.00 0.00 26 1018.1
20210723032152 81 64 3.5 11.3 0.00 0.00 0.00 26 1018.1
20210723032053 81 174 3.5 11.3 0.00 0.00 0.00 26 1018.1
20210723031953 81 192 3.5 11.3 0.00 0.00 0.00 26 1018.1
20210723031853 81 115 3.5 11.3 0.00 0.00 0.00 26 1018.1
20210723031753 81 167 3.5 11.3 0.00 0.00 0.00 26 1018.1
20210723031746 81 152 3.5 11.3 0.00 0.00 0.00 26 1018.1
20210723031653 81 163 3.5 11.3 0.00 0.00 0.00 26 1018.1
20210723031552 81 244 3.5 11.3 0.00 0.00 0.00 26 1018.1
20210723031454 81 43 3.5 9.6 0.00 0.00 0.00 26 1018.1
20210723031353 81 40 3.5 7.8 0.00 0.00 0.00 26 1018.1
20210723031252 81 144 2.6 7.8 0.00 0.00 0.00 26 1018.1
20210723031247 81 182 2.6 7.8 0.00 0.00 0.00 26 1018.1
20210723031152 81 278 2.6 7.8 0.00 0.00 0.00 26 1018.0
20210723031053 81 41 2.6 7.8 0.00 0.00 0.00 26 1018.0
20210723030953 82 56 2.6 7.8 0.00 0.00 0.00 26 1018.0
20210723030853 82 62 2.6 7.8 0.00 0.00 0.00 25 1018.0
20210723030753 82 23 2.6 7.8 0.00 0.00 0.00 26 1018.0
20210723030746 82 62 2.6 7.8 0.00 0.00 0.00 26 1018.0
20210723030653 82 29 2.6 7.8 0.00 0.00 0.00 26 1018.0
20210723030552 82 19 2.6 7.8 0.00 0.00 0.00 26 1018.0
20210723030453 82 293 2.6 7.8 0.00 0.00 0.00 25 1018.0
20210723030352 82 318 2.6 7.8 0.00 0.00 0.00 26 1018.0
20210723030253 82 160 4.3 8.7 0.00 0.00 0.00 26 1018.0
20210723030246 82 212 4.3 9.6 0.00 0.00 0.00 26 1018.0
20210723030152 82 273 4.3 9.6 0.00 0.00 0.00 26 1018.0
20210723030053 82 251 4.3 9.6 0.00 0.00 0.00 26 1018.0
20210723025947 82 251 4.3 9.6 0.00 0.00 0.00 26 1018.0
20210723025847 82 337 4.3 9.6 0.00 0.00 0.00 25 1018.0
20210723025745 82 230 4.3 9.6 0.00 0.00 0.00 26 1018.0
20210723025645 82 232 4.3 9.6 0.00 0.00 0.00 26 1017.9
20210723025545 82 277 4.3 9.6 0.00 0.00 0.00 25 1017.9
20210723025444 82 245 4.3 9.6 0.00 0.00 0.00 26 1017.9
20210723025348 82 266 4.3 10.4 0.00 0.00 0.00 26 1017.9
20210723025246 82 278 3.5 10.4 0.00 0.00 0.00 25 1017.9
20210723025145 82 234 3.5 12.2 0.00 0.00 0.00 25 1017.9
20210723025044 82 207 3.5 12.2 0.00 0.00 0.00 25 1017.9
20210723024946 83 322 3.5 12.2 0.00 0.00 0.00 25 1017.9
20210723024845 83 305 3.5 12.2 0.00 0.00 0.00 25 1017.9
20210723024744 83 318 3.5 12.2 0.00 0.00 0.00 25 1017.9
20210723024645 83 280 3.5 12.2 0.00 0.00 0.00 25 1017.9
20210723024544 83 310 3.5 12.2 0.00 0.00 0.00 26 1017.9
20210723024446 83 300 3.5 12.2 0.00 0.00 0.00 25 1017.9
20210723024344 83 263 3.5 12.2 0.00 0.00 0.00 25 1017.9
20210723024245 83 274 5.2 12.2 0.00 0.00 0.00 25 1017.9
20210723024145 83 297 5.2 9.6 0.00 0.00 0.00 25 1017.5
20210723024045 83 306 5.2 11.3 0.00 0.00 0.00 25 1017.5
20210723023946 83 238 5.2 11.3 0.00 0.00 0.00 25 1017.5
20210723023845 83 314 5.2 11.3 0.00 0.00 0.00 25 1017.5
20210723023745 83 231 5.2 11.3 0.00 0.00 0.00 25 1017.5
20210723023645 83 262 5.2 11.3 0.00 0.00 0.00 25 1017.5
20210723023545 83 260 5.2 11.3 0.00 0.00 0.00 25 1017.5
20210723023445 83 264 5.2 13.9 0.00 0.00 0.00 25 1017.5
20210723023345 83 281 5.2 13.9 0.00 0.00 0.00 25 1017.5
20210723023245 83 275 7.0 13.9 0.00 0.00 0.00 25 1017.5
20210723023144 83 329 7.0 16.5 0.00 0.00 0.00 25 1017.5
20210723023045 83 245 7.0 16.5 0.00 0.00 0.00 25 1017.5
20210723022945 84 150 7.0 16.5 0.00 0.00 0.00 25 1017.5
20210723022845 84 272 7.0 16.5 0.00 0.00 0.00 25 1017.5
20210723022744 84 301 7.0 16.5 0.00 0.00 0.00 25 1017.5
20210723022645 84 311 7.0 16.5 0.00 0.00 0.00 25 1017.4
20210723022545 84 267 7.0 16.5 0.00 0.00 0.00 25 1017.4
20210723022446 84 289 7.0 16.5 0.00 0.00 0.00 25 1017.4
20210723022345 84 152 7.0 16.5 0.00 0.00 0.00 25 1017.4
20210723022245 84 303 5.2 16.5 0.00 0.00 0.00 25 1017.4
20210723022145 84 336 5.2 15.6 0.00 0.00 0.00 25 1017.4
20210723022046 84 285 5.2 13.0 0.00 0.00 0.00 25 1017.4
20210723021944 84 302 5.2 13.0 0.00 0.00 0.00 25 1017.4
20210723021845 84 303 5.2 13.0 0.00 0.00 0.00 25 1017.4
20210723021745 84 229 5.2 13.0 0.00 0.00 0.00 25 1017.4
20210723021646 84 258 5.2 13.0 0.00 0.00 0.00 25 1017.4
20210723021547 84 272 5.2 13.0 0.00 0.00 0.00 25 1017.4
20210723021445 85 260 5.2 13.0 0.00 0.00 0.00 25 1017.4
20210723021345 85 353 5.2 13.0 0.00 0.00 0.00 25 1017.4
20210723021246 85 144 6.1 14.8 0.00 0.00 0.00 25 1017.4
20210723021139 85 317 6.1 14.8 0.00 0.00 0.00 25 1017.4
20210723021039 85 317 6.1 14.8 0.00 0.00 0.00 25 1017.4
20210723020938 85 312 6.1 14.8 0.00 0.00 0.00 25 1017.4
20210723020839 85 257 6.1 14.8 0.00 0.00 0.00 25 1017.4
20210723020740 85 301 6.1 14.8 0.00 0.00 0.00 25 1017.4
20210723020736 85 255 6.1 14.8 0.00 0.00 0.00 25 1017.4
20210723020634 85 327 6.1 14.8 0.00 0.00 0.00 25 1017.4
20210723020535 85 326 6.1 14.8 0.00 0.00 0.00 25 1017.4
20210723020434 85 265 6.1 14.8 0.00 0.00 0.00 25 1017.4
20210723020333 85 292 6.1 14.8 0.00 0.00 0.00 25 1017.4
20210723020238 85 322 6.1 13.0 0.00 0.00 0.00 25 1017.4
20210723020232 85 300 6.1 13.0 0.00 0.00 0.00 24 1017.4
20210723020132 85 290 6.1 13.0 0.00 0.00 0.00 24 1017.4
20210723020033 85 209 6.1 14.8 0.00 0.00 0.00 24 1017.4
20210723015932 86 273 6.1 14.8 0.00 0.00 0.00 24 1017.4
20210723015832 86 304 6.1 14.8 0.00 0.00 0.00 24 1017.4
20210723015738 86 235 6.1 14.8 0.00 0.00 0.00 24 1017.4
20210723015733 86 324 6.1 14.8 0.00 0.00 0.00 24 1017.4
20210723015633 86 53 6.1 14.8 0.00 0.00 0.00 24 1017.4
20210723015533 86 280 6.1 14.8 0.00 0.00 0.00 24 1017.4
20210723015433 86 329 6.1 14.8 0.00 0.00 0.00 24 1017.4
20210723015333 86 258 6.1 14.8 0.00 0.00 0.00 23 1017.4
20210723015238 86 292 5.2 14.8 0.00 0.00 0.00 23 1017.4
20210723015232 86 242 5.2 14.8 0.00 0.00 0.00 23 1017.4
20210723015132 87 162 5.2 14.8 0.00 0.00 0.00 23 1017.4
20210723015033 87 303 5.2 14.8 0.00 0.00 0.00 24 1017.4
20210723014833 87 245 5.2 14.8 0.00 0.00 0.00 23 1017.4
20210723014737 87 333 5.2 14.8 0.00 0.00 0.00 23 1017.4
20210723014732 87 331 5.2 14.8 0.00 0.00 0.00 23 1017.4
20210723014632 87 275 5.2 14.8 0.00 0.00 0.00 24 1017.4
20210723014533 87 277 5.2 14.8 0.00 0.00 0.00 24 1017.4
20210723014432 87 275 5.2 14.8 0.00 0.00 0.00 24 1017.4
20210723014332 87 272 5.2 13.0 0.00 0.00 0.00 23 1017.4
20210723014239 87 317 5.2 16.5 0.00 0.00 0.00 23 1017.4
20210723014232 87 322 5.2 16.5 0.00 0.00 0.00 23 1017.4
20210723014132 87 331 5.2 16.5 0.00 0.00 0.00 23 1017.1
20210723014032 87 258 5.2 16.5 0.00 0.00 0.00 24 1017.1
20210723013933 87 317 5.2 16.5 0.00 0.00 0.00 24 1017.1
20210723013833 87 254 5.2 16.5 0.00 0.00 0.00 24 1017.1
20210723013738 87 324 5.2 16.5 0.00 0.00 0.00 24 1017.1
20210723013733 87 279 5.2 16.5 0.00 0.00 0.00 24 1017.1
20210723013632 87 281 5.2 16.5 0.00 0.00 0.00 24 1017.1
20210723013533 87 301 5.2 16.5 0.00 0.00 0.00 24 1017.1
20210723013432 87 290 5.2 16.5 0.00 0.00 0.00 24 1017.1
20210723013334 87 322 5.2 16.5 0.00 0.00 0.00 24 1017.1
20210723013238 87 337 6.1 14.8 0.00 0.00 0.00 24 1017.1
20210723013233 87 251 6.1 14.8 0.00 0.00 0.00 24 1017.1
20210723013133 87 15 6.1 14.8 0.00 0.00 0.00 24 1017.1
20210723013033 87 276 6.1 14.8 0.00 0.00 0.00 24 1017.1
20210723012933 87 336 6.1 14.8 0.00 0.00 0.00 24 1017.1
20210723012832 88 273 6.1 14.8 0.00 0.00 0.00 24 1017.1
20210723012739 88 294 6.1 14.8 0.00 0.00 0.00 24 1017.1
20210723012733 88 267 6.1 14.8 0.00 0.00 0.00 24 1017.1
20210723012632 88 291 6.1 14.8 0.00 0.00 0.00 23 1017.0
20210723012532 88 6 6.1 13.9 0.00 0.00 0.00 24 1017.0
20210723012433 88 253 6.1 13.9 0.00 0.00 0.00 24 1017.0
20210723012332 88 320 6.1 13.9 0.00 0.00 0.00 24 1017.0
20210723012238 88 335 5.2 14.8 0.00 0.00 0.00 24 1017.0
20210723012233 88 306 5.2 14.8 0.00 0.00 0.00 24 1017.0
20210723012133 88 270 5.2 14.8 0.00 0.00 0.00 24 1017.0
20210723012032 88 271 5.2 14.8 0.00 0.00 0.00 24 1017.0
20210723011933 88 276 5.2 14.8 0.00 0.00 0.00 24 1017.0
20210723011832 88 279 5.2 14.8 0.00 0.00 0.00 24 1017.0
20210723011738 88 326 5.2 14.8 0.00 0.00 0.00 24 1017.0
20210723011733 88 280 5.2 14.8 0.00 0.00 0.00 24 1017.0
20210723011633 88 280 5.2 14.8 0.00 0.00 0.00 24 1017.0
20210723011533 88 263 5.2 14.8 0.00 0.00 0.00 24 1017.0
20210723011430 88 264 5.2 14.8 0.00 0.00 0.00 24 1017.0
20210723011330 88 312 5.2 14.8 0.00 0.00 0.00 24 1017.0
20210723011238 89 330 6.1 13.0 0.00 0.00 0.00 24 1017.0
20210723011230 89 274 6.1 13.0 0.00 0.00 0.00 24 1017.0
20210723011129 89 284 6.1 13.0 0.00 0.00 0.00 24 1016.7
20210723011027 89 308 6.1 13.0 0.00 0.00 0.00 24 1016.7
20210723010928 89 297 6.1 13.0 0.00 0.00 0.00 24 1016.7
20210723010827 89 307 6.1 13.0 0.00 0.00 0.00 24 1016.7
20210723010737 89 253 6.1 14.8 0.00 0.00 0.00 24 1016.7
20210723010727 89 315 6.1 14.8 0.00 0.00 0.00 24 1016.7
20210723010627 89 257 6.1 14.8 0.00 0.00 0.00 24 1016.7
20210723010528 89 304 6.1 14.8 0.00 0.00 0.00 24 1016.7
20210723010427 89 286 6.1 14.8 0.00 0.00 0.00 24 1016.7
20210723010327 89 294 6.1 14.8 0.00 0.00 0.00 24 1016.7
20210723010228 89 329 6.1 14.8 0.00 0.00 0.00 24 1016.7
20210723010128 89 292 6.1 14.8 0.00 0.00 0.00 24 1016.7
20210723010028 89 194 6.1 14.8 0.00 0.00 0.00 24 1016.7
20210723005927 89 295 6.1 14.8 0.00 0.00 0.00 24 1016.7
20210723005827 89 307 6.1 14.8 0.00 0.00 0.00 24 1016.7
20210723005728 89 293 6.1 14.8 0.00 0.00 0.00 24 1016.7
20210723005627 89 326 6.1 16.5 0.00 0.00 0.00 24 1016.9
20210723005528 89 235 6.1 16.5 0.00 0.00 0.00 24 1016.9
20210723005427 89 205 6.1 16.5 0.00 0.00 0.00 24 1016.9
20210723005329 89 4 6.1 16.5 0.00 0.00 0.00 23 1016.9
20210723005238 89 186 5.2 16.5 0.00 0.00 0.00 23 1016.9
20210723005227 89 294 5.2 16.5 0.00 0.00 0.00 24 1016.9
20210723005128 89 302 5.2 18.2 0.00 0.00 0.00 24 1016.9
20210723005027 89 176 5.2 18.2 0.00 0.00 0.00 23 1016.9
20210723004927 89 172 5.2 18.2 0.00 0.00 0.00 23 1016.9
20210723004827 90 337 5.2 18.2 0.00 0.00 0.00 23 1016.9
20210723004739 90 273 5.2 18.2 0.00 0.00 0.00 23 1016.9
20210723004727 90 313 5.2 18.2 0.00 0.00 0.00 24 1016.9
20210723004627 90 300 5.2 18.2 0.00 0.00 0.00 23 1016.9
20210723004527 90 198 5.2 18.2 0.00 0.00 0.00 23 1016.9
20210723004427 90 277 5.2 18.2 0.00 0.00 0.00 23 1016.9
20210723004327 90 334 5.2 18.2 0.00 0.00 0.00 23 1016.9
20210723004238 90 252 5.2 18.2 0.00 0.00 0.00 23 1016.9
20210723004228 90 340 5.2 18.2 0.00 0.00 0.00 23 1016.9
20210723004128 90 312 5.2 13.0 0.00 0.00 0.00 24 1017.0
20210723004027 90 299 5.2 13.0 0.00 0.00 0.00 23 1017.0
20210723003930 90 319 5.2 13.9 0.00 0.00 0.00 23 1017.0
20210723003827 90 32 5.2 16.5 0.00 0.00 0.00 23 1017.0
20210723003738 90 144 5.2 16.5 0.00 0.00 0.00 23 1017.0
20210723003728 90 151 5.2 16.5 0.00 0.00 0.00 23 1017.0
20210723003627 90 260 5.2 16.5 0.00 0.00 0.00 23 1017.0
20210723003527 90 311 5.2 16.5 0.00 0.00 0.00 23 1017.0
20210723003428 90 307 5.2 16.5 0.00 0.00 0.00 23 1017.0
20210723003327 90 295 5.2 16.5 0.00 0.00 0.00 23 1017.0
20210723003227 90 223 3.5 16.5 0.00 0.00 0.00 23 1017.0
20210723003128 90 262 3.5 16.5 0.00 0.00 0.00 22 1017.0
20210723003029 91 341 3.5 16.5 0.00 0.00 0.00 22 1017.0
20210723002928 91 308 3.5 16.5 0.00 0.00 0.00 22 1017.0
20210723002827 91 199 3.5 11.3 0.00 0.00 0.00 22 1017.0
20210723002733 91 306 3.5 10.4 0.00 0.00 0.00 23 1017.0
20210723002727 91 278 3.5 10.4 0.00 0.00 0.00 22 1017.0
20210723002627 91 279 3.5 10.4 0.00 0.00 0.00 22 1016.9
20210723002527 91 191 3.5 10.4 0.00 0.00 0.00 22 1016.9
20210723002427 91 255 3.5 8.7 0.00 0.00 0.00 22 1016.9
20210723002327 91 319 3.5 8.7 0.00 0.00 0.00 22 1016.9
20210723002233 91 273 3.5 8.7 0.00 0.00 0.00 23 1016.9
20210723002227 91 167 3.5 8.7 0.00 0.00 0.00 23 1016.9
20210723002127 91 137 3.5 8.7 0.00 0.00 0.00 23 1016.9
20210723002027 91 269 3.5 8.7 0.00 0.00 0.00 22 1016.9
20210723001928 91 259 3.5 12.2 0.00 0.00 0.00 23 1016.9
20210723001828 91 86 3.5 12.2 0.00 0.00 0.00 23 1016.9
20210723001733 91 77 3.5 12.2 0.00 0.00 0.00 23 1016.9
20210723001727 91 55 3.5 12.2 0.00 0.00 0.00 23 1016.9
20210723001627 91 57 3.5 12.2 0.00 0.00 0.00 23 1016.9
20210723001527 91 249 3.5 12.2 0.00 0.00 0.00 23 1016.9
20210723001427 91 239 3.5 12.2 0.00 0.00 0.00 23 1016.9
20210723001327 91 292 3.5 12.2 0.00 0.00 0.00 23 1016.9
20210723001233 91 246 3.5 12.2 0.00 0.00 0.00 23 1016.9
20210723001229 91 237 3.5 12.2 0.00 0.00 0.00 23 1016.9
20210723001127 91 203 3.5 12.2 0.00 0.00 0.00 22 1017.0
20210723001027 92 277 3.5 12.2 0.00 0.00 0.00 22 1017.0
20210723000928 92 257 3.5 11.3 0.00 0.00 0.00 22 1017.0
20210723000827 92 334 3.5 11.3 0.00 0.00 0.00 22 1017.0
20210723000733 92 252 3.5 11.3 0.00 0.00 0.00 22 1017.0
20210723000727 92 317 3.5 11.3 0.00 0.00 0.00 22 1017.0
20210723000627 92 227 3.5 6.1 0.00 0.00 0.00 22 1017.0
20210723000528 92 316 3.5 7.8 0.00 0.00 0.00 22 1017.0
20210723000427 91 221 3.5 12.2 0.00 0.00 0.00 22 1017.0
20210723000331 91 343 3.5 12.2 0.00 0.00 0.00 23 1017.0
20210723000233 91 344 4.3 12.2 0.00 0.00 0.00 22 1017.0
20210723000228 91 59 4.3 12.2 0.00 0.00 0.00 23 1017.0
20210723000128 91 321 4.3 12.2 0.00 0.00 0.00 23 1017.0
20210723000026 91 333 4.3 12.2 0.00 0.00 0.00 23 1017.0
20210722235916 91 11 4.3 12.2 0.00 0.00 0.00 23 1017.0
20210722235812 91 82 4.3 12.2 0.00 0.00 0.00 22 1017.0
20210722235734 91 262 4.3 12.2 0.00 0.00 0.00 22 1017.0
20210722235712 91 305 4.3 12.2 0.00 0.00 0.00 22 1017.0
20210722235612 92 200 4.3 12.2 0.00 0.00 0.00 22 1017.0
20210722235513 92 303 4.3 12.2 0.00 0.00 0.00 22 1017.0
20210722235411 92 312 4.3 12.2 0.00 0.00 0.00 22 1017.0
20210722235309 92 282 4.3 12.2 0.00 0.00 0.00 22 1017.0
20210722235234 92 175 4.3 12.2 0.00 0.00 0.00 23 1017.0
20210722235210 92 287 4.3 12.2 0.00 0.00 0.00 22 1017.0
20210722235109 92 343 4.3 10.4 0.00 0.00 0.00 22 1017.0
20210722235007 92 23 4.3 10.4 0.00 0.00 0.00 22 1017.0
20210722234908 92 301 4.3 10.4 0.00 0.00 0.00 22 1017.0
20210722234807 92 152 4.3 10.4 0.00 0.00 0.00 22 1017.0
20210722234733 92 248 4.3 10.4 0.00 0.00 0.00 22 1017.0
20210722234707 92 209 4.3 10.4 0.00 0.00 0.00 22 1017.0
20210722234608 92 268 4.3 10.4 0.00 0.00 0.00 23 1017.0
20210722234507 92 25 4.3 10.4 0.00 0.00 0.00 22 1017.0
20210722234407 92 109 4.3 9.6 0.00 0.00 0.00 22 1017.0
20210722234308 92 189 5.2 9.6 0.00 0.00 0.00 23 1017.0
20210722234234 92 236 5.2 9.6 0.00 0.00 0.00 23 1017.0
20210722234207 92 286 5.2 9.6 0.00 0.00 0.00 22 1017.0
20210722234107 92 279 5.2 9.6 0.00 0.00 0.00 23 1017.0
20210722234008 91 309 5.2 9.6 0.00 0.00 0.00 22 1017.0
20210722233907 91 327 5.2 9.6 0.00 0.00 0.00 22 1017.0
20210722233807 91 277 5.2 13.0 0.00 0.00 0.00 23 1017.0
20210722233734 91 146 5.2 13.0 0.00 0.00 0.00 23 1017.0
20210722233707 91 145 5.2 13.0 0.00 0.00 0.00 23 1017.0
20210722233608 91 283 5.2 13.0 0.00 0.00 0.00 22 1017.0
20210722233507 91 261 5.2 13.0 0.00 0.00 0.00 22 1017.0
20210722233407 91 45 5.2 13.0 0.00 0.00 0.00 22 1017.0
20210722233307 91 343 5.2 13.0 0.00 0.00 0.00 22 1017.0
20210722233233 91 245 5.2 13.0 0.00 0.00 0.00 21 1017.0
20210722233208 91 247 5.2 13.0 0.00 0.00 0.00 22 1017.0
20210722233107 91 241 5.2 14.8 0.00 0.00 0.00 22 1017.0
20210722233008 91 312 5.2 14.8 0.00 0.00 0.00 22 1017.0
20210722232907 91 253 5.2 14.8 0.00 0.00 0.00 22 1017.0
20210722232807 91 313 5.2 14.8 0.00 0.00 0.00 22 1017.0
20210722232732 91 316 5.2 14.8 0.00 0.00 0.00 22 1017.0
20210722232707 91 327 5.2 14.8 0.00 0.00 0.00 22 1017.1
20210722232607 91 332 5.2 14.8 0.00 0.00 0.00 22 1017.1
20210722232508 91 337 5.2 14.8 0.00 0.00 0.00 22 1017.1
20210722232408 91 255 5.2 14.8 0.00 0.00 0.00 22 1017.1
20210722232309 91 303 6.1 14.8 0.00 0.00 0.00 22 1017.1
20210722232231 91 299 6.1 14.8 0.00 0.00 0.00 21 1017.1
20210722232208 92 293 6.1 14.8 0.00 0.00 0.00 21 1017.1
20210722232108 92 243 6.1 13.9 0.00 0.00 0.00 22 1017.1
20210722232008 92 283 6.1 13.9 0.00 0.00 0.00 22 1017.1
20210722231907 92 180 6.1 13.9 0.00 0.00 0.00 22 1017.1
20210722231807 92 357 6.1 13.9 0.00 0.00 0.00 23 1017.1
20210722231731 92 300 6.1 13.9 0.00 0.00 0.00 22 1017.1
20210722231707 92 0 6.1 13.9 0.00 0.00 0.00 22 1017.1
20210722231608 92 298 6.1 13.9 0.00 0.00 0.00 22 1017.1
20210722231508 92 260 6.1 13.9 0.00 0.00 0.00 22 1017.1
20210722231407 92 347 6.1 14.8 0.00 0.00 0.00 22 1017.1
20210722231307 92 226 4.3 14.8 0.00 0.00 0.00 22 1017.1
20210722231231 92 333 4.3 14.8 0.00 0.00 0.00 22 1017.1
20210722231208 92 321 4.3 14.8 0.00 0.00 0.00 22 1017.1
20210722231107 92 317 4.3 14.8 0.00 0.00 0.00 22 1017.1
20210722231008 92 327 4.3 14.8 0.00 0.00 0.00 22 1017.1
20210722230908 92 182 4.3 14.8 0.00 0.00 0.00 23 1017.1
20210722230807 92 261 4.3 14.8 0.00 0.00 0.00 23 1017.1
20210722230731 92 277 4.3 14.8 0.00 0.00 0.00 23 1017.1
20210722230707 92 273 4.3 14.8 0.00 0.00 0.00 22 1017.1
20210722230607 92 330 4.3 14.8 0.00 0.00 0.00 22 1017.1
20210722230508 92 280 4.3 14.8 0.00 0.00 0.00 22 1017.1
20210722230408 92 317 4.3 13.9 0.00 0.00 0.00 22 1017.1
20210722230307 92 176 5.2 12.2 0.00 0.00 0.00 22 1017.1
20210722230229 92 233 5.2 13.0 0.00 0.00 0.00 22 1017.1
20210722230207 92 359 5.2 13.0 0.00 0.00 0.00 22 1017.1
20210722230108 92 271 5.2 13.0 0.00 0.00 0.00 22 1017.1
20210722230006 92 228 5.2 13.0 0.00 0.00 0.00 23 1017.1
20210722225907 92 335 5.2 13.0 0.00 0.00 0.00 22 1017.1
20210722225807 92 336 5.2 13.0 0.00 0.00 0.00 23 1017.1
20210722225729 92 202 5.2 13.9 0.00 0.00 0.00 22 1017.1
20210722225708 92 280 5.2 13.9 0.00 0.00 0.00 22 1017.1
20210722225607 92 169 5.2 13.9 0.00 0.00 0.00 23 1017.1
20210722225507 92 292 5.2 13.9 0.00 0.00 0.00 23 1017.1
20210722225407 92 283 5.2 13.9 0.00 0.00 0.00 23 1017.1
20210722225307 92 333 5.2 13.9 0.00 0.00 0.00 23 1017.1
20210722225228 92 340 5.2 13.9 0.00 0.00 0.00 22 1017.1
20210722225208 92 250 5.2 13.9 0.00 0.00 0.00 22 1017.1
20210722225109 92 166 5.2 13.9 0.00 0.00 0.00 23 1017.1
20210722225007 92 213 5.2 13.9 0.00 0.00 0.00 22 1017.1
20210722224907 92 265 5.2 13.9 0.00 0.00 0.00 22 1017.1
20210722224808 92 310 5.2 13.9 0.00 0.00 0.00 22 1017.1
20210722224729 92 243 5.2 11.3 0.00 0.00 0.00 22 1017.1
20210722224707 92 315 5.2 11.3 0.00 0.00 0.00 23 1017.1
20210722224607 92 332 5.2 11.3 0.00 0.00 0.00 23 1017.1
20210722224508 92 263 5.2 11.3 0.00 0.00 0.00 22 1017.1
20210722224407 92 245 5.2 11.3 0.00 0.00 0.00 22 1017.1
20210722224307 92 246 4.3 11.3 0.00 0.00 0.00 22 1017.1
20210722224229 92 293 4.3 11.3 0.00 0.00 0.00 23 1017.1
20210722224207 92 320 4.3 11.3 0.00 0.00 0.00 22 1017.2
20210722224107 92 258 4.3 11.3 0.00 0.00 0.00 22 1017.2
20210722224007 93 335 4.3 11.3 0.00 0.00 0.00 22 1017.2
20210722223907 93 342 4.3 11.3 0.00 0.00 0.00 23 1017.2
20210722223807 93 262 4.3 11.3 0.00 0.00 0.00 22 1017.2
20210722223728 93 317 4.3 11.3 0.00 0.00 0.00 23 1017.2
20210722223707 93 268 4.3 11.3 0.00 0.00 0.00 22 1017.2
20210722223607 93 286 4.3 11.3 0.00 0.00 0.00 22 1017.2
20210722223507 93 329 4.3 11.3 0.00 0.00 0.00 22 1017.2
20210722223408 93 313 4.3 11.3 0.00 0.00 0.00 22 1017.2
20210722223307 93 338 3.5 11.3 0.00 0.00 0.00 22 1017.2
20210722223229 93 13 3.5 11.3 0.00 0.00 0.00 22 1017.2
20210722223207 93 82 3.5 11.3 0.00 0.00 0.00 22 1017.2
20210722223107 93 295 3.5 11.3 0.00 0.00 0.00 22 1017.2
20210722223008 93 256 3.5 11.3 0.00 0.00 0.00 23 1017.2
20210722222907 93 319 3.5 11.3 0.00 0.00 0.00 22 1017.2
20210722222807 93 326 3.5 11.3 0.00 0.00 0.00 22 1017.2
20210722222729 93 296 3.5 11.3 0.00 0.00 0.00 22 1017.2
20210722222705 93 313 3.5 11.3 0.00 0.00 0.00 22 1017.4
20210722222602 93 282 3.5 11.3 0.00 0.00 0.00 22 1017.4
20210722222502 93 304 3.5 11.3 0.00 0.00 0.00 22 1017.4
20210722222402 93 287 3.5 11.3 0.00 0.00 0.00 23 1017.4
20210722222306 93 269 3.5 11.3 0.00 0.00 0.00 23 1017.4
20210722222228 93 297 3.5 11.3 0.00 0.00 0.00 23 1017.4
20210722222202 93 281 3.5 7.8 0.00 0.00 0.00 23 1017.4
20210722222102 93 333 3.5 7.8 0.00 0.00 0.00 22 1017.4
20210722222003 93 264 3.5 7.0 0.00 0.00 0.00 23 1017.4
20210722221902 93 312 3.5 6.1 0.00 0.00 0.00 23 1017.4
20210722221802 93 43 3.5 8.7 0.00 0.00 0.00 23 1017.4
20210722221728 93 2 3.5 8.7 0.00 0.00 0.00 23 1017.4
20210722221703 93 14 3.5 8.7 0.00 0.00 0.00 23 1017.4
20210722221602 93 310 3.5 12.2 0.00 0.00 0.00 23 1017.4
20210722221503 93 340 3.5 12.2 0.00 0.00 0.00 23 1017.4
20210722221402 93 28 3.5 12.2 0.00 0.00 0.00 24 1017.4
20210722221302 92 185 4.3 12.2 0.00 0.00 0.00 24 1017.4
20210722221229 92 106 4.3 12.2 0.00 0.00 0.00 24 1017.4
20210722221202 92 219 4.3 12.2 0.00 0.00 0.00 24 1017.4
20210722221102 92 300 4.3 12.2 0.00 0.00 0.00 23 1017.4
20210722221002 92 243 4.3 12.2 0.00 0.00 0.00 23 1017.4
20210722220856 92 297 4.3 12.2 0.00 0.00 0.00 23 1017.4
20210722220757 92 285 4.3 12.2 0.00 0.00 0.00 23 1017.4
20210722220728 92 268 4.3 12.2 0.00 0.00 0.00 23 1017.4
20210722220700 92 133 4.3 12.2 0.00 0.00 0.00 23 1017.4
20210722220557 92 297 4.3 10.4 0.00 0.00 0.00 23 1017.4
20210722220457 92 324 4.3 7.8 0.00 0.00 0.00 23 1017.4
20210722220357 92 292 4.3 7.8 0.00 0.00 0.00 23 1017.4
20210722220258 92 130 4.3 9.6 0.00 0.00 0.00 23 1017.4
20210722220228 92 107 4.3 9.6 0.00 0.00 0.00 23 1017.4
20210722220157 92 112 4.3 9.6 0.00 0.00 0.00 23 1017.4
20210722220056 92 50 4.3 9.6 0.00 0.00 0.00 23 1017.4
20210722215958 92 69 4.3 9.6 0.00 0.00 0.00 23 1017.4
20210722215857 92 277 4.3 9.6 0.00 0.00 0.00 24 1017.4
20210722215758 92 238 4.3 9.6 0.00 0.00 0.00 23 1017.4
20210722215729 92 281 4.3 9.6 0.00 0.00 0.00 23 1017.4
20210722215658 92 304 4.3 9.6 0.00 0.00 0.00 23 1017.5
20210722215557 92 9 4.3 9.6 0.00 0.00 0.00 23 1017.5
20210722215458 92 294 4.3 10.4 0.00 0.00 0.00 23 1017.5
20210722215357 92 305 4.3 10.4 0.00 0.00 0.00 24 1017.5
20210722215257 92 319 4.3 10.4 0.00 0.00 0.00 23 1017.5
20210722215229 92 274 4.3 11.3 0.00 0.00 0.00 23 1017.5
20210722215157 92 70 4.3 11.3 0.00 0.00 0.00 23 1017.5
20210722215057 92 191 4.3 11.3 0.00 0.00 0.00 23 1017.5
20210722214958 92 174 4.3 11.3 0.00 0.00 0.00 23 1017.5
20210722214858 92 125 4.3 11.3 0.00 0.00 0.00 23 1017.5
20210722214758 92 350 4.3 11.3 0.00 0.00 0.00 24 1017.5
20210722214727 92 282 4.3 11.3 0.00 0.00 0.00 23 1017.5
20210722214657 93 231 4.3 11.3 0.00 0.00 0.00 23 1017.5
20210722214557 93 341 4.3 11.3 0.00 0.00 0.00 23 1017.5
20210722214457 93 308 4.3 11.3 0.00 0.00 0.00 23 1017.5
20210722214357 93 317 4.3 11.3 0.00 0.00 0.00 23 1017.5
20210722214258 93 288 5.2 11.3 0.00 0.00 0.00 23 1017.5
20210722214228 93 279 5.2 9.6 0.00 0.00 0.00 23 1017.5
20210722214158 93 324 5.2 12.2 0.00 0.00 0.00 24 1017.4
20210722214059 93 356 5.2 17.4 0.00 0.00 0.00 24 1017.4
20210722213959 92 294 5.2 17.4 0.00 0.00 0.00 24 1017.4
20210722213857 92 157 5.2 20.0 0.00 0.00 0.00 24 1017.4
20210722213757 92 338 5.2 20.0 0.00 0.00 0.00 24 1017.4
20210722213728 92 213 5.2 20.0 0.00 0.00 0.00 24 1017.4
20210722213657 92 293 5.2 20.0 0.00 0.00 0.00 24 1017.4
20210722213557 92 70 5.2 20.0 0.00 0.00 0.00 24 1017.4
20210722213457 92 174 5.2 20.0 0.00 0.00 0.00 24 1017.4
20210722213358 92 98 5.2 20.0 0.00 0.00 0.00 24 1017.4
20210722213257 92 305 4.3 20.0 0.00 0.00 0.00 23 1017.4
20210722213228 92 300 4.3 20.0 0.00 0.00 0.00 24 1017.4
20210722213157 92 260 4.3 20.0 0.00 0.00 0.00 23 1017.4
20210722213057 92 287 4.3 20.0 0.00 0.00 0.00 24 1017.4
20210722212957 92 282 4.3 20.0 0.00 0.00 0.00 24 1017.4
20210722212857 92 270 4.3 12.2 0.00 0.00 0.00 24 1017.4
20210722212757 92 271 4.3 12.2 0.00 0.00 0.00 23 1017.4
20210722212728 92 304 4.3 11.3 0.00 0.00 0.00 24 1017.4
20210722212658 92 282 4.3 9.6 0.00 0.00 0.00 24 1017.5
20210722212557 92 253 4.3 9.6 0.00 0.00 0.00 23 1017.5
20210722212457 92 353 4.3 9.6 0.00 0.00 0.00 24 1017.5
20210722212356 92 308 4.3 9.6 0.00 0.00 0.00 23 1017.5
20210722212258 92 295 3.5 9.6 0.00 0.00 0.00 24 1017.5
20210722212228 92 324 3.5 9.6 0.00 0.00 0.00 24 1017.5
20210722212158 92 236 3.5 9.6 0.00 0.00 0.00 23 1017.5
20210722212058 92 293 3.5 9.6 0.00 0.00 0.00 24 1017.5
20210722211959 92 185 3.5 9.6 0.00 0.00 0.00 24 1017.5
20210722211857 92 288 3.5 9.6 0.00 0.00 0.00 23 1017.5
20210722211757 92 216 3.5 9.6 0.00 0.00 0.00 23 1017.5
20210722211728 92 298 3.5 9.6 0.00 0.00 0.00 23 1017.5
20210722211658 92 202 3.5 9.6 0.00 0.00 0.00 23 1017.5
20210722211557 92 315 3.5 9.6 0.00 0.00 0.00 23 1017.5
20210722211457 92 321 3.5 9.6 0.00 0.00 0.00 24 1017.5
20210722211357 92 303 3.5 9.6 0.00 0.00 0.00 24 1017.5
20210722211257 92 237 4.3 8.7 0.00 0.00 0.00 24 1017.5
20210722211229 92 73 4.3 9.6 0.00 0.00 0.00 24 1017.5
20210722211158 92 210 4.3 9.6 0.00 0.00 0.00 24 1017.5
20210722211057 92 309 4.3 9.6 0.00 0.00 0.00 24 1017.5
20210722210957 92 223 4.3 13.0 0.00 0.00 0.00 25 1017.5
20210722210858 92 86 4.3 13.0 0.00 0.00 0.00 23 1017.5
20210722210757 92 181 4.3 13.0 0.00 0.00 0.00 23 1017.5
20210722210727 92 147 4.3 13.0 0.00 0.00 0.00 23 1017.5
20210722210658 92 169 4.3 13.0 0.00 0.00 0.00 23 1017.5
20210722210557 92 306 4.3 13.0 0.00 0.00 0.00 23 1017.5
20210722210457 92 337 4.3 13.0 0.00 0.00 0.00 24 1017.5
20210722210357 92 311 4.3 13.0 0.00 0.00 0.00 23 1017.5
20210722210258 92 259 4.3 13.0 0.00 0.00 0.00 24 1017.5
20210722210221 92 269 4.3 13.0 0.00 0.00 0.00 24 1017.5
20210722210158 92 312 4.3 13.0 0.00 0.00 0.00 24 1017.5
20210722210058 92 296 4.3 13.0 0.00 0.00 0.00 25 1017.5
20210722205957 92 150 4.3 8.7 0.00 0.00 0.00 25 1017.5
20210722205857 92 34 4.3 8.7 0.00 0.00 0.00 25 1017.5
20210722205721 92 251 4.3 8.7 0.00 0.00 0.00 24 1017.8
20210722205657 92 290 4.3 8.7 0.00 0.00 0.00 24 1017.8
20210722205557 92 268 4.3 11.3 0.00 0.00 0.00 24 1017.8
20210722205458 92 250 4.3 13.0 0.00 0.00 0.00 25 1017.8
20210722205357 91 127 4.3 13.0 0.00 0.00 0.00 25 1017.8
20210722205258 91 355 5.2 13.0 0.00 0.00 0.00 26 1017.8
20210722205219 91 10 5.2 13.0 0.00 0.00 0.00 25 1017.8
20210722205158 91 153 5.2 13.0 0.00 0.00 0.00 25 1017.8
20210722205059 91 122 5.2 13.0 0.00 0.00 0.00 25 1017.8
20210722204957 91 100 5.2 13.0 0.00 0.00 0.00 25 1017.8
20210722204857 91 328 5.2 13.0 0.00 0.00 0.00 25 1017.8
20210722204757 91 159 5.2 13.0 0.00 0.00 0.00 25 1017.8
20210722204718 91 308 5.2 13.0 0.00 0.00 0.00 25 1017.8
20210722204657 91 283 5.2 13.0 0.00 0.00 0.00 25 1017.8
20210722204557 91 298 5.2 14.8 0.00 0.00 0.00 24 1017.8
20210722204458 91 302 5.2 14.8 0.00 0.00 0.00 24 1017.8
20210722204357 91 240 5.2 14.8 0.00 0.00 0.00 24 1017.8
20210722204257 91 239 4.3 14.8 0.00 0.00 0.00 25 1017.8
20210722204219 91 268 4.3 14.8 0.00 0.00 0.00 26 1017.9
20210722204057 91 308 4.3 14.8 0.00 0.00 0.00 25 1017.9
20210722203957 91 25 4.3 14.8 0.00 0.00 0.00 25 1017.9
20210722203857 91 199 4.3 14.8 0.00 0.00 0.00 25 1017.9
20210722203756 92 292 4.3 14.8 0.00 0.00 0.00 24 1017.9
20210722203718 92 322 4.3 14.8 0.00 0.00 0.00 24 1017.9
20210722203657 92 274 4.3 14.8 0.00 0.00 0.00 24 1017.9
20210722203557 92 301 4.3 12.2 0.00 0.00 0.00 24 1017.9
20210722203456 92 318 4.3 7.8 0.00 0.00 0.00 24 1017.9
20210722203355 92 121 4.3 7.8 0.00 0.00 0.00 24 1017.9
20210722203254 92 312 4.3 7.8 0.00 0.00 0.00 24 1017.9
20210722203217 92 248 4.3 7.8 0.00 0.00 0.00 24 1017.9
20210722203154 92 243 4.3 7.8 0.00 0.00 0.00 24 1017.9
20210722203055 92 221 4.3 8.7 0.00 0.00 0.00 24 1017.9
20210722202955 92 309 4.3 13.9 0.00 0.00 0.00 25 1017.9
20210722202854 92 300 4.3 13.9 0.00 0.00 0.00 24 1017.9
20210722202755 92 252 4.3 13.9 0.00 0.00 0.00 25 1017.9
20210722202718 92 195 4.3 13.9 0.00 0.00 0.00 25 1018.0
20210722202655 91 199 4.3 13.9 0.00 0.00 0.00 25 1018.0
20210722202555 91 328 4.3 13.9 0.00 0.00 0.00 25 1018.0
20210722202453 91 260 4.3 13.9 0.00 0.00 0.00 24 1018.0
20210722202352 91 274 4.3 13.9 0.00 0.00 0.00 24 1018.0
20210722202253 92 249 3.5 13.9 0.00 0.00 0.00 24 1018.0
20210722202218 92 332 3.5 13.9 0.00 0.00 0.00 25 1018.0
20210722202152 92 325 3.5 13.9 0.00 0.00 0.00 25 1018.0
20210722202052 92 292 3.5 13.9 0.00 0.00 0.00 24 1018.0
20210722201953 92 344 3.5 8.7 0.00 0.00 0.00 24 1018.0
20210722201851 92 321 3.5 8.7 0.00 0.00 0.00 24 1018.0
20210722201753 91 263 3.5 8.7 0.00 0.00 0.00 25 1018.0
20210722201719 91 202 3.5 8.7 0.00 0.00 0.00 25 1018.0
20210722201652 91 239 3.5 8.7 0.00 0.00 0.00 26 1018.0
20210722201552 91 142 3.5 8.7 0.00 0.00 0.00 25 1018.0
20210722201453 91 280 3.5 8.7 0.00 0.00 0.00 25 1018.0
20210722201352 91 299 3.5 8.7 0.00 0.00 0.00 24 1018.0
20210722201252 91 297 4.3 8.7 0.00 0.00 0.00 24 1018.0
20210722201217 91 267 4.3 8.7 0.00 0.00 0.00 24 1018.1
20210722201149 91 242 4.3 8.7 0.00 0.00 0.00 25 1018.1
20210722201051 91 162 4.3 8.7 0.00 0.00 0.00 25 1018.1
20210722200949 91 342 4.3 8.7 0.00 0.00 0.00 25 1018.1
20210722200849 91 296 4.3 8.7 0.00 0.00 0.00 25 1018.1
20210722200750 91 262 4.3 8.7 0.00 0.00 0.00 25 1018.1
20210722200718 91 292 4.3 8.7 0.00 0.00 0.00 24 1018.1
20210722200649 91 262 4.3 8.7 0.00 0.00 0.00 25 1018.1
20210722200546 91 217 4.3 8.7 0.00 0.00 0.00 24 1018.1
20210722200447 91 303 4.3 8.7 0.00 0.00 0.00 24 1018.1
20210722200347 91 19 4.3 8.7 0.00 0.00 0.00 25 1018.1
20210722200247 91 145 4.3 10.4 0.00 0.00 0.00 24 1018.1
20210722200218 91 145 4.3 10.4 0.00 0.00 0.00 25 1018.1
20210722200147 90 53 4.3 10.4 0.00 0.00 0.00 25 1018.1
20210722200048 90 327 4.3 10.4 0.00 0.00 0.00 25 1018.1
20210722195947 90 308 4.3 10.4 0.00 0.00 0.00 24 1018.1
20210722195847 90 329 4.3 11.3 0.00 0.00 0.00 25 1018.1
20210722195746 90 323 4.3 11.3 0.00 0.00 0.00 25 1018.1
20210722195718 90 300 4.3 11.3 0.00 0.00 0.00 25 1018.2
20210722195647 90 284 4.3 11.3 0.00 0.00 0.00 25 1018.2
20210722195547 90 190 4.3 11.3 0.00 0.00 0.00 24 1018.2
20210722195447 90 311 4.3 11.3 0.00 0.00 0.00 24 1018.2
20210722195347 90 351 4.3 11.3 0.00 0.00 0.00 25 1018.2
20210722195247 90 295 4.3 11.3 0.00 0.00 0.00 26 1018.2
20210722195217 90 260 4.3 11.3 0.00 0.00 0.00 25 1018.2
20210722195147 91 277 4.3 11.3 0.00 0.00 0.00 25 1018.2
20210722195047 91 288 4.3 11.3 0.00 0.00 0.00 24 1018.2
20210722194947 91 305 4.3 17.4 0.00 0.00 0.00 24 1018.2
20210722194847 91 321 4.3 17.4 0.00 0.00 0.00 24 1018.2
20210722194747 91 308 4.3 17.4 0.00 0.00 0.00 24 1018.2
20210722194718 91 295 4.3 17.4 0.00 0.00 0.00 24 1018.2
20210722194647 91 342 4.3 17.4 0.00 0.00 0.00 24 1018.2
20210722194547 91 246 4.3 17.4 0.00 0.00 0.00 23 1018.2
20210722194447 91 83 4.3 17.4 0.00 0.00 0.00 23 1018.2
20210722194347 91 174 4.3 17.4 0.00 0.00 0.00 23 1018.2
20210722194248 91 166 1.7 17.4 0.00 0.00 0.00 25 1018.2
20210722194218 91 294 1.7 17.4 0.00 0.00 0.00 24 1018.2
20210722194148 91 273 1.7 17.4 0.00 0.00 0.00 24 1018.2
20210722194046 91 193 1.7 17.4 0.00 0.00 0.00 23 1018.2
20210722193947 91 153 1.7 15.6 0.00 0.00 0.00 23 1018.2
20210722193847 91 151 1.7 7.8 0.00 0.00 0.00 25 1018.2
20210722193748 91 142 1.7 7.0 0.00 0.00 0.00 24 1018.2
20210722193718 91 191 1.7 7.0 0.00 0.00 0.00 24 1018.2
20210722193649 91 228 1.7 7.0 0.00 0.00 0.00 23 1018.2
20210722193547 91 264 1.7 6.1 0.00 0.00 0.00 23 1018.2
20210722193447 91 287 1.7 4.3 0.00 0.00 0.00 22 1018.2
20210722193347 91 292 1.7 4.3 0.00 0.00 0.00 22 1018.2
20210722193247 91 32 1.7 4.3 0.00 0.00 0.00 22 1018.2
20210722193218 91 344 1.7 4.3 0.00 0.00 0.00 23 1018.2
20210722193148 91 94 1.7 4.3 0.00 0.00 0.00 22 1018.2
20210722193045 91 193 1.7 4.3 0.00 0.00 0.00 22 1018.2
20210722192942 91 169 1.7 4.3 0.00 0.00 0.00 22 1018.2
20210722192842 91 184 1.7 4.3 0.00 0.00 0.00 22 1018.2
20210722192742 91 162 1.7 4.3 0.00 0.00 0.00 23 1018.2
20210722192717 91 163 1.7 4.3 0.00 0.00 0.00 23 1018.4
20210722192637 91 165 1.7 4.3 0.00 0.00 0.00 23 1018.4
20210722192540 91 179 1.7 4.3 0.00 0.00 0.00 22 1018.4
20210722192434 91 213 1.7 4.3 0.00 0.00 0.00 22 1018.4
20210722192334 91 242 1.7 4.3 0.00 0.00 0.00 22 1018.4
20210722192233 91 221 1.7 4.3 0.00 0.00 0.00 22 1018.4
20210722192213 91 216 1.7 4.3 0.00 0.00 0.00 22 1018.4
20210722192132 91 192 1.7 4.3 0.00 0.00 0.00 22 1018.4
20210722192032 91 338 1.7 4.3 0.00 0.00 0.00 24 1018.4
20210722191926 91 338 1.7 4.3 0.00 0.00 0.00 23 1018.4
20210722191828 91 101 1.7 4.3 0.00 0.00 0.00 23 1018.4
20210722191728 91 79 1.7 5.2 0.00 0.00 0.00 24 1018.4
20210722191710 91 164 1.7 5.2 0.00 0.00 0.00 23 1018.4
20210722191628 91 174 1.7 5.2 0.00 0.00 0.00 23 1018.4
20210722191526 90 183 1.7 5.2 0.00 0.00 0.00 23 1018.4
20210722191428 90 173 1.7 5.2 0.00 0.00 0.00 24 1018.4
20210722191324 90 225 1.7 5.2 0.00 0.00 0.00 23 1018.4
20210722191223 90 208 1.7 5.2 0.00 0.00 0.00 23 1018.4
20210722191209 90 210 1.7 5.2 0.00 0.00 0.00 23 1018.6
20210722191120 90 185 1.7 5.2 0.00 0.00 0.00 24 1018.6
20210722191020 89 123 1.7 5.2 0.00 0.00 0.00 23 1018.6
20210722190920 89 123 1.7 5.2 0.00 0.00 0.00 24 1018.6
20210722190819 89 98 1.7 5.2 0.00 0.00 0.00 24 1018.6
20210722190720 89 164 1.7 3.5 0.00 0.00 0.00 23 1018.6
20210722190705 89 172 1.7 3.5 0.00 0.00 0.00 23 1018.6
20210722190620 89 144 1.7 4.3 0.00 0.00 0.00 24 1018.6
20210722190520 89 250 1.7 4.3 0.00 0.00 0.00 24 1018.6
20210722190417 89 254 1.7 4.3 0.00 0.00 0.00 23 1018.6
20210722190314 89 278 1.7 4.3 0.00 0.00 0.00 23 1018.6
20210722190205 89 251 1.7 4.3 0.00 0.00 0.00 23 1018.6
20210722190112 89 192 1.7 5.2 0.00 0.00 0.00 23 1018.6
20210722190011 89 97 1.7 5.2 0.00 0.00 0.00 23 1018.6
20210722185913 89 84 1.7 5.2 0.00 0.00 0.00 25 1018.6
20210722185812 89 95 1.7 5.2 0.00 0.00 0.00 23 1018.6
20210722185706 88 221 1.7 5.2 0.00 0.00 0.00 24 1018.7
20210722185609 88 131 1.7 5.2 0.00 0.00 0.00 23 1018.7
20210722185509 88 122 1.7 5.2 0.00 0.00 0.00 25 1018.7
20210722185407 88 206 1.7 5.2 0.00 0.00 0.00 23 1018.7
20210722185307 88 181 1.7 5.2 0.00 0.00 0.00 24 1018.7
20210722185203 88 165 1.7 5.2 0.00 0.00 0.00 24 1018.7
20210722185107 88 157 1.7 4.3 0.00 0.00 0.00 24 1018.7
20210722185006 87 183 1.7 4.3 0.00 0.00 0.00 25 1018.7
20210722184907 87 108 1.7 4.3 0.00 0.00 0.00 26 1018.7
20210722184807 87 170 1.7 4.3 0.00 0.00 0.00 25 1018.7
20210722184706 87 163 1.7 5.2 0.00 0.00 0.00 24 1018.7
20210722184701 87 163 1.7 5.2 0.00 0.00 0.00 24 1018.7
20210722184607 87 177 1.7 5.2 0.00 0.00 0.00 25 1018.7
20210722184507 87 179 1.7 5.2 0.00 0.00 0.00 25 1018.7
20210722184406 87 184 1.7 5.2 0.00 0.00 0.00 24 1018.7
20210722184304 87 162 1.7 5.2 0.00 0.00 0.00 25 1018.7
20210722184206 87 28 1.7 5.2 0.00 0.00 0.00 25 1018.8
20210722184200 87 28 1.7 5.2 0.00 0.00 0.00 25 1018.8
20210722184105 87 25 1.7 5.2 0.00 0.00 0.00 25 1018.8
20210722184003 87 25 1.7 5.2 0.00 0.00 0.00 25 1018.8
20210722183900 87 96 1.7 5.2 0.00 0.00 0.00 25 1018.8
20210722183759 87 135 1.7 5.2 0.00 0.00 0.00 25 1018.8
20210722183653 86 9 1.7 5.2 0.00 0.00 0.00 25 1018.8
20210722183604 86 73 1.7 5.2 0.00 0.00 0.00 26 1018.8
20210722183500 86 68 1.7 5.2 0.00 0.00 0.00 25 1018.8
20210722183400 86 18 1.7 5.2 0.00 0.00 0.00 25 1018.8
20210722183243 86 20 2.6 5.2 0.00 0.00 0.00 24 1018.8
20210722183153 86 23 2.6 5.2 0.00 0.00 0.00 25 1018.8
20210722183142 86 20 2.6 5.2 0.00 0.00 0.00 24 1018.8
20210722183042 86 42 2.6 4.3 0.00 0.00 0.00 24 1018.8
20210722182942 86 180 2.6 4.3 0.00 0.00 0.00 25 1018.8
20210722182842 86 127 2.6 3.5 0.00 0.00 0.00 26 1018.8
20210722182742 86 186 2.6 3.5 0.00 0.00 0.00 26 1018.8
20210722182653 86 164 2.6 3.5 0.00 0.00 0.00 26 1018.9
20210722182642 86 136 2.6 3.5 0.00 0.00 0.00 26 1018.9
20210722182542 85 191 2.6 4.3 0.00 0.00 0.00 27 1018.9
20210722182439 85 191 2.6 4.3 0.00 0.00 0.00 26 1018.9
20210722182340 85 75 2.6 5.2 0.00 0.00 0.00 26 1018.9
20210722182239 85 337 1.7 5.2 0.00 0.00 0.00 25 1018.9
20210722182152 85 292 1.7 5.2 0.00 0.00 0.00 26 1018.9
20210722182137 85 290 1.7 5.2 0.00 0.00 0.00 26 1018.9
20210722182036 86 291 1.7 5.2 0.00 0.00 0.00 25 1018.9
20210722181937 86 248 1.7 5.2 0.00 0.00 0.00 25 1018.9
20210722181836 86 282 1.7 5.2 0.00 0.00 0.00 26 1018.9
20210722181737 86 284 1.7 5.2 0.00 0.00 0.00 26 1018.9
20210722181653 86 294 1.7 5.2 0.00 0.00 0.00 25 1018.9
20210722181637 86 315 1.7 5.2 0.00 0.00 0.00 25 1018.9
20210722181536 87 306 1.7 5.2 0.00 0.00 0.00 24 1018.9
20210722181437 87 287 1.7 5.2 0.00 0.00 0.00 25 1018.9
20210722181337 87 261 1.7 5.2 0.00 0.00 0.00 24 1018.9
20210722181236 87 207 1.7 5.2 0.00 0.00 0.00 24 1018.9
20210722181153 87 171 1.7 5.2 0.00 0.00 0.00 25 1019.1
20210722181137 87 202 1.7 5.2 0.00 0.00 0.00 25 1019.1
20210722181038 87 110 1.7 5.2 0.00 0.00 0.00 26 1019.1
20210722180934 87 356 1.7 5.2 0.00 0.00 0.00 26 1019.1
20210722180835 86 30 1.7 5.2 0.00 0.00 0.00 26 1019.1
20210722180731 86 300 1.7 5.2 0.00 0.00 0.00 26 1019.1
20210722180653 86 194 1.7 3.5 0.00 0.00 0.00 25 1019.1
20210722180630 86 200 1.7 3.5 0.00 0.00 0.00 26 1019.1
20210722180526 86 177 1.7 3.5 0.00 0.00 0.00 26 1019.1
20210722180427 86 145 1.7 3.5 0.00 0.00 0.00 27 1019.1
20210722180328 86 144 1.7 5.2 0.00 0.00 0.00 26 1019.1
20210722180224 85 144 1.7 5.2 0.00 0.00 0.00 27 1019.1
20210722180153 85 144 1.7 5.2 0.00 0.00 0.00 27 1019.1
20210722180122 85 289 1.7 5.2 0.00 0.00 0.00 26 1019.1
20210722180022 85 290 1.7 5.2 0.00 0.00 0.00 26 1019.1
20210722175921 85 203 1.7 5.2 0.00 0.00 0.00 25 1019.1
20210722175822 85 151 1.7 5.2 0.00 0.00 0.00 25 1019.1
20210722175721 85 199 1.7 5.2 0.00 0.00 0.00 26 1019.1
20210722175653 85 199 1.7 5.2 0.00 0.00 0.00 26 1019.1
20210722175622 85 199 1.7 5.2 0.00 0.00 0.00 25 1019.1
20210722175520 85 211 1.7 5.2 0.00 0.00 0.00 25 1019.1
20210722175420 86 297 1.7 5.2 0.00 0.00 0.00 25 1019.1
20210722175319 86 297 1.7 5.2 0.00 0.00 0.00 25 1019.1
20210722175220 86 296 1.7 5.2 0.00 0.00 0.00 26 1019.1
20210722175153 86 296 1.7 5.2 0.00 0.00 0.00 26 1019.1
20210722175117 86 296 1.7 5.2 0.00 0.00 0.00 26 1019.1
20210722175017 86 300 1.7 5.2 0.00 0.00 0.00 25 1019.1
20210722174917 86 264 1.7 3.5 0.00 0.00 0.00 27 1019.1
20210722174817 86 218 1.7 3.5 0.00 0.00 0.00 26 1019.1
20210722174716 86 213 1.7 3.5 0.00 0.00 0.00 26 1019.1
20210722174650 86 180 1.7 3.5 0.00 0.00 0.00 26 1019.1
20210722174618 85 87 1.7 3.5 0.00 0.00 0.00 26 1019.1
20210722174517 85 177 1.7 3.5 0.00 0.00 0.00 25 1019.1
20210722174416 85 160 1.7 3.5 0.00 0.00 0.00 26 1019.1
20210722174317 85 162 1.7 3.5 0.00 0.00 0.00 26 1019.1
20210722174216 85 200 1.7 3.5 0.00 0.00 0.00 27 1019.2
20210722174151 85 200 1.7 3.5 0.00 0.00 0.00 27 1019.2
20210722174108 85 185 1.7 3.5 0.00 0.00 0.00 27 1019.2
20210722174007 85 181 1.7 3.5 0.00 0.00 0.00 27 1019.2
20210722173907 84 179 1.7 3.5 0.00 0.00 0.00 28 1019.2
20210722173807 84 179 1.7 3.5 0.00 0.00 0.00 27 1019.2
20210722173707 84 181 1.7 3.5 0.00 0.00 0.00 26 1019.2
20210722173648 84 165 1.7 3.5 0.00 0.00 0.00 26 1019.2
20210722173607 84 67 1.7 2.6 0.00 0.00 0.00 26 1019.2
20210722173457 84 205 1.7 3.5 0.00 0.00 0.00 27 1019.2
20210722173357 83 209 1.7 3.5 0.00 0.00 0.00 27 1019.2
20210722173256 83 209 1.7 4.3 0.00 0.00 0.00 27 1019.2
20210722173149 83 209 1.7 4.3 0.00 0.00 0.00 27 1019.2
20210722173128 83 186 1.7 4.3 0.00 0.00 0.00 28 1019.2
20210722173026 83 188 1.7 4.3 0.00 0.00 0.00 27 1019.2
20210722172924 83 216 1.7 4.3 0.00 0.00 0.00 26 1019.2
20210722172824 83 199 1.7 4.3 0.00 0.00 0.00 26 1019.2
20210722172723 83 102 1.7 4.3 0.00 0.00 0.00 26 1019.2
20210722172621 83 102 1.7 4.3 0.00 0.00 0.00 27 1019.2
20210722172514 83 201 1.7 4.3 0.00 0.00 0.00 27 1019.2
20210722172414 82 168 1.7 4.3 0.00 0.00 0.00 28 1019.2
20210722172314 82 165 1.7 4.3 0.00 0.00 0.00 28 1019.2
20210722172211 82 172 1.7 4.3 0.00 0.00 0.00 27 1019.2
20210722172146 82 175 1.7 4.3 0.00 0.00 0.00 27 1019.2
20210722172112 82 181 1.7 4.3 0.00 0.00 0.00 27 1019.2
20210722172012 82 174 1.7 4.3 0.00 0.00 0.00 27 1019.2
20210722171912 82 170 1.7 4.3 0.00 0.00 0.00 28 1019.2
20210722171807 82 171 1.7 4.3 0.00 0.00 0.00 27 1019.2
20210722171707 82 174 1.7 4.3 0.00 0.00 0.00 27 1019.2
20210722171645 82 174 1.7 4.3 0.00 0.00 0.00 27 1019.2
20210722171600 82 177 1.7 4.3 0.00 0.00 0.00 27 1019.2
20210722171500 82 194 1.7 4.3 0.00 0.00 0.00 28 1019.2
20210722171356 82 60 1.7 4.3 0.00 0.00 0.00 28 1019.2
20210722171257 82 205 1.7 4.3 0.00 0.00 0.00 28 1019.2
20210722171157 82 198 1.7 4.3 0.00 0.00 0.00 28 1019.2
20210722171146 82 201 1.7 4.3 0.00 0.00 0.00 29 1019.2
20210722171057 82 208 1.7 4.3 0.00 0.00 0.00 28 1019.2
20210722170949 82 208 1.7 4.3 0.00 0.00 0.00 28 1019.2
20210722170848 82 175 1.7 4.3 0.00 0.00 0.00 27 1019.2
20210722170747 82 226 1.7 4.3 0.00 0.00 0.00 27 1019.2
20210722170647 82 207 1.7 4.3 0.00 0.00 0.00 27 1019.2
20210722170546 82 185 1.7 4.3 0.00 0.00 0.00 28 1019.2
20210722170445 82 185 1.7 4.3 0.00 0.00 0.00 28 1019.2
20210722170339 82 185 1.7 4.3 0.00 0.00 0.00 27 1019.2
20210722170239 82 181 1.7 4.3 0.00 0.00 0.00 28 1019.2
20210722170140 81 140 1.7 4.3 0.00 0.00 0.00 28 1019.2
20210722170036 81 183 1.7 4.3 0.00 0.00 0.00 29 1019.2
20210722165937 81 166 1.7 4.3 0.00 0.00 0.00 29 1019.2
20210722165837 82 171 1.7 4.3 0.00 0.00 0.00 28 1019.2
20210722165736 82 181 1.7 4.3 0.00 0.00 0.00 29 1019.2
20210722165641 82 136 1.7 3.5 0.00 0.00 0.00 28 1019.3
20210722165636 81 183 1.7 3.5 0.00 0.00 0.00 29 1019.3
20210722165537 81 170 1.7 3.5 0.00 0.00 0.00 28 1019.3
20210722165435 81 170 1.7 3.5 0.00 0.00 0.00 28 1019.3
20210722165335 81 155 1.7 4.3 0.00 0.00 0.00 28 1019.3
20210722165234 81 167 1.7 4.3 0.00 0.00 0.00 28 1019.3
20210722165140 81 172 1.7 4.3 0.00 0.00 0.00 29 1019.3
20210722165132 81 169 1.7 4.3 0.00 0.00 0.00 29 1019.3
20210722165032 81 191 1.7 4.3 0.00 0.00 0.00 29 1019.3
20210722164932 81 187 1.7 4.3 0.00 0.00 0.00 29 1019.3
20210722164827 81 187 1.7 4.3 0.00 0.00 0.00 29 1019.3
20210722164727 81 15 1.7 4.3 0.00 0.00 0.00 29 1019.3
20210722164641 81 15 1.7 4.3 0.00 0.00 0.00 30 1019.3
20210722164619 81 14 1.7 4.3 0.00 0.00 0.00 30 1019.3
20210722164514 81 15 1.7 4.3 0.00 0.00 0.00 28 1019.3
20210722164402 81 6 1.7 4.3 0.00 0.00 0.00 29 1019.3
20210722164302 81 159 1.7 4.3 0.00 0.00 0.00 29 1019.3
20210722164159 81 187 1.7 4.3 0.00 0.00 0.00 29 1019.3
20210722164131 81 186 1.7 4.3 0.00 0.00 0.00 29 1019.3
20210722164047 81 203 1.7 4.3 0.00 0.00 0.00 28 1019.3
20210722163947 81 164 1.7 4.3 0.00 0.00 0.00 29 1019.3
20210722163846 81 176 1.7 4.3 0.00 0.00 0.00 28 1019.3
20210722163747 81 177 1.7 4.3 0.00 0.00 0.00 28 1019.3
20210722163647 81 172 1.7 4.3 0.00 0.00 0.00 29 1019.3
20210722163631 81 183 1.7 4.3 0.00 0.00 0.00 28 1019.3
20210722163546 81 192 1.7 4.3 0.00 0.00 0.00 28 1019.3
20210722163447 81 152 1.7 3.5 0.00 0.00 0.00 28 1019.3
20210722163342 81 2 1.7 3.5 0.00 0.00 0.00 28 1019.3
20210722163241 81 198 1.7 3.5 0.00 0.00 0.00 28 1019.3